GREAT EAST LAKE DAM: From 11/25/2018 00:00 to 01/26/2019 00:00

Date LAKE ELEVATION [FT] PRECIPITATION INCREMENT [IN] PRECIPITATION TOTAL [IN] AIR TEMPERATURE [F] RELATIVE HUMIDITY [%]
01/24/2019 03:00 570.99 0.00 -- 34.9 74.0
01/24/2019 02:00 570.98 0.00 -- 36.5 76.0
01/24/2019 01:00 570.98 0.00 -- 36.6 87.0
01/24/2019 00:00 570.98 0.00 -- 33.8 91.0
01/23/2019 23:00 570.99 0.00 -- 36.1 98.0
01/23/2019 22:00 570.98 0.01 -- 37.3 100.0
01/23/2019 21:00 570.98 0.00 -- 34.9 100.0
01/23/2019 20:00 570.98 0.00 -- 35.0 100.0
01/23/2019 19:00 571.00 0.00 -- 29.4 100.0
01/23/2019 18:00 571.00 0.00 -- 29.5 100.0
01/23/2019 17:00 570.99 0.00 -- 30.2 100.0
01/23/2019 16:00 571.00 0.00 -- 31.2 100.0
01/23/2019 15:00 570.99 0.00 -- 31.3 100.0
01/23/2019 14:00 570.97 0.00 -- 30.0 100.0
01/23/2019 13:00 571.01 0.00 -- 27.5 100.0
01/23/2019 12:00 570.99 0.00 -- 25.7 100.0
01/23/2019 11:00 570.98 0.00 -- 22.5 100.0
01/23/2019 10:00 571.02 0.00 -- 19.8 100.0
01/23/2019 09:00 570.99 0.00 -- 17.4 100.0
01/23/2019 08:00 570.97 0.00 -- 16.4 100.0
01/23/2019 07:00 571.01 0.00 -- 15.3 100.0
01/23/2019 06:00 570.99 0.00 -- 9.2 100.0
01/23/2019 05:00 570.98 0.00 -- 9.7 100.0
01/23/2019 04:00 571.01 0.00 -- 9.3 100.0
01/23/2019 03:00 570.99 0.00 -- 9.6 100.0
01/23/2019 02:00 570.96 0.00 -- 11.7 100.0
01/23/2019 01:00 571.00 0.00 -- 12.7 100.0
01/23/2019 00:00 571.02 0.00 0.01 13.3 100.0
01/22/2019 23:00 571.00 0.00 -- 13.5 100.0
01/22/2019 22:00 570.99 0.00 -- 14.3 100.0
01/22/2019 21:00 571.00 0.00 -- 14.1 100.0
01/22/2019 20:00 571.01 0.00 -- 13.7 100.0
01/22/2019 19:00 570.99 0.00 -- 13.1 100.0
01/22/2019 18:00 571.01 0.00 -- 13.4 100.0
01/22/2019 17:00 571.01 0.00 -- 14.4 100.0
01/22/2019 16:00 570.99 0.00 -- 16.3 100.0
01/22/2019 15:00 570.99 0.00 -- 16.9 100.0
01/22/2019 14:00 570.97 0.00 -- 16.4 100.0
01/22/2019 13:00 570.98 0.00 -- 16.2 100.0
01/22/2019 12:00 571.01 0.00 -- 14.9 100.0
01/22/2019 11:00 571.00 0.00 -- 11.7 100.0
01/22/2019 10:00 571.01 0.00 -- 7.3 100.0
01/22/2019 09:00 571.01 0.00 -- 3.8 100.0
01/22/2019 08:00 570.99 0.00 -- 1.4 100.0
01/22/2019 07:00 570.99 0.00 -- 0.5 100.0
01/22/2019 06:00 571.01 0.00 -- 0.0 100.0
01/22/2019 05:00 570.99 0.00 -- -0.3 100.0
01/22/2019 04:00 571.00 0.00 -- -0.2 100.0
01/22/2019 03:00 571.03 0.00 -- 0.3 100.0
01/22/2019 02:00 570.99 0.00 -- 0.3 100.0
01/22/2019 01:00 571.02 0.00 -- 0.2 100.0
01/22/2019 00:00 571.03 0.00 0.00 0.8 100.0
01/21/2019 23:00 570.99 0.00 -- 0.5 100.0
01/21/2019 22:00 571.01 0.00 -- 0.3 100.0
01/21/2019 21:00 571.02 0.00 -- -0.8 100.0
01/21/2019 20:00 571.02 0.00 -- -1.4 100.0
01/21/2019 19:00 570.98 0.00 -- -2.3 100.0
01/21/2019 18:00 571.03 0.00 -- -2.1 100.0
01/21/2019 17:00 571.00 0.00 -- -2.8 100.0
01/21/2019 16:00 571.01 0.00 -- -1.9 100.0
01/21/2019 15:00 571.01 0.00 -- -1.1 100.0
01/21/2019 14:00 571.01 0.00 -- 0.0 100.0
01/21/2019 13:00 571.01 0.00 -- 0.3 100.0
01/21/2019 12:00 571.02 0.00 -- -0.7 100.0
01/21/2019 11:00 571.03 0.00 -- -1.7 100.0
01/21/2019 10:00 571.01 0.00 -- -2.2 100.0
01/21/2019 09:00 571.03 0.00 -- -2.0 100.0
01/21/2019 08:00 571.03 0.00 -- -1.5 100.0
01/21/2019 07:00 571.04 0.00 -- -0.8 100.0
01/21/2019 06:00 571.03 0.00 -- -1.1 100.0
01/21/2019 05:00 571.02 0.00 -- -1.3 100.0
01/21/2019 04:00 571.02 0.00 -- -1.0 100.0
01/21/2019 03:00 571.05 0.00 -- -0.8 100.0
01/21/2019 02:00 571.03 0.00 -- -0.9 100.0
01/21/2019 01:00 571.05 0.00 -- -0.9 100.0
01/21/2019 00:00 571.03 0.00 0.00 0.6 100.0
01/20/2019 23:00 571.05 0.00 -- 2.1 100.0
01/20/2019 22:00 571.05 0.00 -- 4.1 100.0
01/20/2019 21:00 571.04 0.00 -- 7.9 100.0
01/20/2019 20:00 571.02 0.00 -- 11.7 100.0
01/20/2019 19:00 571.04 0.00 -- 16.9 100.0
01/20/2019 18:00 571.06 0.00 -- 14.8 100.0
01/20/2019 17:00 571.05 0.00 -- 14.4 100.0
01/20/2019 16:00 571.05 0.00 -- 13.1 100.0
01/20/2019 15:00 571.05 0.00 -- 11.2 100.0
01/20/2019 14:00 571.05 0.00 -- 10.4 100.0
01/20/2019 13:00 571.03 0.00 -- 10.2 100.0
01/20/2019 12:00 570.99 0.00 -- 9.5 100.0
01/20/2019 11:00 571.05 0.00 -- 9.1 100.0
01/20/2019 10:00 571.11 0.00 -- 8.3 100.0
01/20/2019 09:00 570.93 0.00 -- 7.7 100.0
01/20/2019 08:00 571.04 0.00 -- 7.4 100.0
01/20/2019 07:00 571.01 0.00 -- 6.8 100.0
01/20/2019 06:00 571.00 0.00 -- 7.4 100.0
01/20/2019 05:00 570.98 0.00 -- 7.7 100.0
01/20/2019 04:00 570.98 0.00 -- 8.4 100.0
01/20/2019 03:00 570.96 0.00 -- 9.5 100.0
01/20/2019 02:00 570.96 0.00 -- 10.3 100.0
01/20/2019 01:00 570.96 0.00 -- 10.8 100.0
01/20/2019 00:00 570.97 0.00 0.00 11.7 100.0
01/19/2019 23:00 570.95 0.00 -- 11.7 100.0
01/19/2019 22:00 570.98 0.00 -- 11.7 100.0
01/19/2019 21:00 570.97 0.00 -- 13.2 100.0
01/19/2019 20:00 570.96 0.00 -- 14.8 100.0
01/19/2019 19:00 570.97 0.00 -- 15.6 100.0
01/19/2019 18:00 570.95 0.00 -- 17.5 100.0
01/19/2019 17:00 570.95 0.00 -- 21.2 100.0
01/19/2019 16:00 570.96 0.00 -- 22.3 100.0
01/19/2019 15:00 570.97 0.00 -- 23.7 100.0
01/19/2019 14:00 570.97 0.00 -- 24.5 100.0
01/19/2019 13:00 570.97 0.00 -- 22.8 100.0
01/19/2019 12:00 570.97 0.00 -- 22.4 100.0
01/19/2019 11:00 570.97 0.00 -- 21.7 100.0
01/19/2019 10:00 570.96 0.00 -- 19.6 100.0
01/19/2019 09:00 570.96 0.00 -- 18.4 100.0
01/19/2019 08:00 570.98 0.00 -- 18.0 100.0
01/19/2019 07:00 570.97 0.00 -- 14.6 100.0
01/19/2019 06:00 570.97 0.00 -- 15.7 100.0
01/19/2019 05:00 570.97 0.00 -- 15.3 100.0
01/19/2019 04:00 570.98 0.00 -- 17.9 100.0
01/19/2019 03:00 570.98 0.00 -- 18.2 100.0
01/19/2019 02:00 570.97 0.00 -- 18.6 100.0
01/19/2019 01:00 570.98 0.00 -- 21.2 100.0
01/19/2019 00:00 570.97 0.00 0.00 23.5 100.0
01/18/2019 23:00 570.97 0.00 -- 25.9 100.0
01/18/2019 22:00 570.98 0.00 -- 22.5 100.0
01/18/2019 21:00 570.96 0.00 -- 22.9 100.0
01/18/2019 20:00 570.96 0.00 -- 22.2 100.0
01/18/2019 19:00 570.97 0.00 -- 22.3 100.0
01/18/2019 18:00 570.98 0.00 -- 24.9 100.0
01/18/2019 17:00 570.99 0.00 -- 26.0 100.0
01/18/2019 16:00 571.00 0.00 -- 29.7 100.0
01/18/2019 15:00 570.99 0.00 -- 30.5 100.0
01/18/2019 14:00 571.00 0.00 -- 29.7 100.0
01/18/2019 13:00 570.99 0.00 -- 25.7 100.0
01/18/2019 12:00 570.99 0.00 -- 22.7 100.0
01/18/2019 11:00 571.00 0.00 -- 19.3 100.0
01/18/2019 10:00 570.99 0.00 -- 17.3 100.0
01/18/2019 09:00 570.99 0.00 -- 15.1 100.0
01/18/2019 08:00 571.00 0.00 -- 13.6 100.0
01/18/2019 07:00 570.98 0.00 -- 11.8 100.0
01/18/2019 06:00 571.00 0.00 -- 10.6 100.0
01/18/2019 05:00 571.00 0.00 -- 12.1 100.0
01/18/2019 04:00 570.99 0.00 -- 13.8 100.0
01/18/2019 03:00 571.00 0.00 -- 13.6 100.0
01/18/2019 02:00 570.99 0.00 -- 13.0 100.0
01/18/2019 01:00 570.99 0.00 -- 12.6 100.0
01/18/2019 00:00 571.01 0.00 0.00 11.8 100.0
01/17/2019 23:00 570.98 0.00 -- 11.5 100.0
01/17/2019 22:00 571.02 0.00 -- 11.7 100.0
01/17/2019 21:00 570.98 0.00 -- 11.2 100.0
01/17/2019 20:00 571.03 0.00 -- 11.2 100.0
01/17/2019 19:00 570.99 0.00 -- 11.0 100.0
01/17/2019 18:00 571.01 0.00 -- 11.4 100.0
01/17/2019 17:00 571.02 0.00 -- 13.9 100.0
01/17/2019 16:00 571.02 0.00 -- 15.8 100.0
01/17/2019 15:00 571.01 0.00 -- 17.4 100.0
01/17/2019 14:00 571.01 0.00 -- 15.9 100.0
01/17/2019 13:00 571.02 0.00 -- 14.4 100.0
01/17/2019 12:00 571.02 0.00 -- 13.5 100.0
01/17/2019 11:00 571.01 0.00 -- 11.1 100.0
01/17/2019 10:00 571.01 0.00 -- 8.6 100.0
01/17/2019 09:00 571.03 0.00 -- 6.1 100.0
01/17/2019 08:00 571.02 0.00 -- 4.5 100.0
01/17/2019 07:00 571.03 0.00 -- 4.9 100.0
01/17/2019 06:00 571.00 0.00 -- 5.5 100.0
01/17/2019 05:00 571.02 0.00 -- 6.7 100.0
01/17/2019 04:00 571.03 0.00 -- 8.2 100.0
01/17/2019 03:00 571.01 0.00 -- 9.5 100.0
01/17/2019 02:00 571.02 0.00 -- 10.8 100.0
01/17/2019 01:00 571.01 0.00 -- 13.2 100.0
01/17/2019 00:00 571.03 0.00 0.00 15.9 100.0
01/16/2019 23:00 571.03 0.00 -- 19.8 100.0
01/16/2019 22:00 571.02 0.00 -- 23.5 100.0
01/16/2019 21:00 571.01 0.00 -- 27.5 100.0
01/16/2019 20:00 571.03 0.00 -- 29.6 100.0
01/16/2019 19:00 571.04 0.00 -- 31.5 100.0
01/16/2019 18:00 571.03 0.00 -- 32.0 100.0
01/16/2019 17:00 571.02 0.00 -- 32.3 100.0
01/16/2019 16:00 571.04 0.01 -- 33.8 100.0
01/16/2019 15:00 571.03 0.00 -- 33.9 100.0
01/16/2019 14:00 571.04 0.00 -- 32.7 100.0
01/16/2019 13:00 571.04 0.00 -- 31.5 100.0
01/16/2019 12:00 571.04 0.00 -- 30.9 100.0
01/16/2019 11:00 571.03 0.00 -- 29.5 100.0
01/16/2019 10:00 571.07 0.00 -- 27.9 100.0
01/16/2019 09:00 571.05 0.00 -- 24.7 100.0
01/16/2019 08:00 571.04 0.00 -- 24.1 100.0
01/16/2019 07:00 571.07 0.00 -- 22.1 100.0
01/16/2019 06:00 571.05 0.00 -- 16.0 100.0
01/16/2019 05:00 571.04 0.00 -- 16.9 100.0
01/16/2019 04:00 571.05 0.00 -- 17.7 100.0
01/16/2019 03:00 571.05 0.00 -- 19.3 100.0
01/16/2019 02:00 571.04 0.00 -- 21.5 100.0
01/16/2019 01:00 571.05 0.00 -- 22.6 100.0
01/16/2019 00:00 571.04 0.00 0.01 22.8 100.0
01/15/2019 23:00 571.04 0.00 -- 22.3 100.0
01/15/2019 22:00 571.04 0.00 -- 22.3 100.0
01/15/2019 21:00 571.06 0.00 -- 21.3 100.0
01/15/2019 20:00 571.06 0.00 -- 22.3 100.0
01/15/2019 19:00 571.05 0.00 -- 24.8 100.0
01/15/2019 18:00 571.05 0.00 -- 25.8 100.0
01/15/2019 17:00 571.06 0.00 -- 26.4 100.0
01/15/2019 16:00 571.07 0.00 -- 27.7 100.0
01/15/2019 15:00 571.06 0.00 -- 29.4 100.0
01/15/2019 14:00 571.07 0.00 -- 29.5 100.0
01/15/2019 13:00 571.06 0.00 -- 29.6 100.0
01/15/2019 12:00 571.06 0.00 -- 27.6 100.0
01/15/2019 11:00 571.07 0.00 -- 25.5 100.0
01/15/2019 10:00 571.07 0.00 -- 22.6 100.0
01/15/2019 09:00 571.06 0.00 -- 20.0 100.0
01/15/2019 08:00 571.08 0.00 -- 16.8 100.0
01/15/2019 07:00 571.07 0.00 -- 15.1 100.0
01/15/2019 06:00 571.07 0.00 -- 16.0 100.0
01/15/2019 05:00 571.07 0.00 -- 13.9 100.0
01/15/2019 04:00 571.10 0.00 -- 14.8 100.0
01/15/2019 03:00 571.07 0.00 -- 15.0 100.0
01/15/2019 02:00 571.09 0.00 -- 12.7 100.0
01/15/2019 01:00 571.09 0.00 -- 10.0 100.0
01/15/2019 00:00 571.05 0.00 0.00 10.8 100.0
01/14/2019 23:00 571.08 0.00 -- 11.3 100.0
01/14/2019 22:00 571.08 0.00 -- 11.2 100.0
01/14/2019 21:00 571.09 0.00 -- 12.3 100.0
01/14/2019 20:00 571.07 0.00 -- 13.2 100.0
01/14/2019 19:00 571.08 0.00 -- 15.0 100.0
01/14/2019 18:00 571.09 0.00 -- 17.4 100.0
01/14/2019 17:00 571.09 0.00 -- 19.0 100.0
01/14/2019 16:00 571.08 0.00 -- 21.7 100.0
01/14/2019 15:00 571.08 0.00 -- 24.3 100.0
01/14/2019 14:00 571.09 0.00 -- 23.8 100.0
01/14/2019 13:00 571.09 0.00 -- 22.7 100.0
01/14/2019 12:00 571.10 0.00 -- 20.3 100.0
01/14/2019 11:00 571.09 0.00 -- 16.3 100.0
01/14/2019 10:00 571.10 0.00 -- 12.1 100.0
01/14/2019 09:00 571.09 0.00 -- 5.1 100.0
01/14/2019 08:00 571.10 0.00 -- 0.8 100.0
01/14/2019 07:00 571.09 0.00 -- 0.9 100.0
01/14/2019 06:00 571.10 0.00 -- 2.1 100.0
01/14/2019 05:00 571.11 0.00 -- 0.9 100.0
01/14/2019 04:00 571.08 0.00 -- 2.9 100.0
01/14/2019 03:00 571.11 0.00 -- 2.2 100.0
01/14/2019 02:00 571.10 0.00 -- 4.2 100.0
01/14/2019 01:00 571.10 0.00 -- 4.9 100.0
01/14/2019 00:00 571.08 0.00 0.00 5.4 100.0
01/13/2019 23:00 571.11 0.00 -- 6.0 100.0
01/13/2019 22:00 571.10 0.00 -- 6.6 100.0
01/13/2019 21:00 571.11 0.00 -- 8.3 100.0
01/13/2019 20:00 571.10 0.00 -- 9.6 100.0
01/13/2019 19:00 571.11 0.00 -- 11.7 100.0
01/13/2019 18:00 571.11 0.00 -- 14.9 100.0
01/13/2019 17:00 571.11 0.00 -- 16.6 100.0
01/13/2019 16:00 571.11 0.00 -- 18.4 100.0
01/13/2019 15:00 571.11 0.00 -- 22.5 100.0
01/13/2019 14:00 571.12 0.00 -- 21.0 100.0
01/13/2019 13:00 571.11 0.00 -- 20.0 100.0
01/13/2019 12:00 571.12 0.00 -- 17.8 100.0
01/13/2019 11:00 571.13 0.00 -- 15.0 100.0
01/13/2019 10:00 571.11 0.00 -- 11.6 100.0
01/13/2019 09:00 571.13 0.00 -- 8.3 100.0
01/13/2019 08:00 571.12 0.00 -- 5.3 100.0
01/13/2019 07:00 571.12 0.00 -- 5.1 100.0
01/13/2019 06:00 571.12 0.00 -- 5.7 100.0
01/13/2019 05:00 571.13 0.00 -- 5.9 100.0
01/13/2019 04:00 571.14 0.00 -- 7.0 100.0
01/13/2019 03:00 571.11 0.00 -- 7.6 100.0
01/13/2019 02:00 571.13 0.00 -- 7.5 100.0
01/13/2019 01:00 571.15 0.00 -- 8.0 100.0
01/13/2019 00:00 571.12 0.00 0.00 8.4 100.0
01/12/2019 23:00 571.12 0.00 -- 9.2 100.0
01/12/2019 22:00 571.14 0.00 -- 9.9 100.0
01/12/2019 21:00 571.12 0.00 -- 10.5 100.0
01/12/2019 20:00 571.13 0.00 -- 11.1 100.0
01/12/2019 19:00 571.16 0.00 -- 11.5 100.0
01/12/2019 18:00 571.15 0.00 -- 12.4 100.0
01/12/2019 17:00 571.14 0.00 -- 13.0 100.0
01/12/2019 16:00 571.14 0.00 -- 13.9 100.0
01/12/2019 15:00 571.13 0.00 -- 14.6 100.0
01/12/2019 14:00 571.16 0.00 -- 14.4 100.0
01/12/2019 13:00 571.14 0.00 -- 13.8 100.0
01/12/2019 12:00 571.13 0.00 -- 12.8 100.0
01/12/2019 11:00 571.13 0.00 -- 11.9 100.0
01/12/2019 10:00 571.14 0.00 -- 11.0 100.0
01/12/2019 09:00 571.14 0.00 -- 10.1 100.0
01/12/2019 08:00 571.15 0.00 -- 9.2 100.0
01/12/2019 07:00 571.15 0.00 -- 8.3 100.0
01/12/2019 06:00 571.16 0.00 -- 7.4 100.0
01/12/2019 05:00 571.16 0.00 -- 6.5 100.0
01/12/2019 04:00 571.17 0.00 -- 5.6 100.0
01/12/2019 03:00 571.17 0.00 -- 4.7 100.0
01/12/2019 02:00 571.16 0.00 -- 4.7 100.0
01/12/2019 01:00 571.17 0.00 -- 4.8 100.0
01/12/2019 00:00 571.15 0.00 0.00 4.5 100.0
01/11/2019 23:00 571.15 0.00 -- 4.5 100.0
01/11/2019 22:00 571.17 0.00 -- 4.3 100.0
01/11/2019 21:00 571.15 0.00 -- 4.0 100.0
01/11/2019 20:00 571.19 0.00 -- 4.1 100.0
01/11/2019 19:00 571.16 0.00 -- 5.7 100.0
01/11/2019 18:00 571.20 0.00 -- 8.1 100.0
01/11/2019 17:00 571.15 0.00 -- 10.1 100.0
01/11/2019 16:00 571.18 0.00 -- 12.0 100.0
01/11/2019 15:00 571.19 0.00 -- 13.2 100.0
01/11/2019 14:00 571.15 0.00 -- 13.4 100.0
01/11/2019 13:00 571.18 0.00 -- 13.6 100.0
01/11/2019 12:00 571.18 0.00 -- 13.7 100.0
01/11/2019 11:00 571.18 0.00 -- 13.6 100.0
01/11/2019 10:00 571.13 0.00 -- 12.9 100.0
01/11/2019 09:00 571.16 0.00 -- 11.9 100.0
01/11/2019 08:00 571.16 0.00 -- 11.0 100.0
01/11/2019 07:00 571.18 0.00 -- 10.7 100.0
01/11/2019 06:00 571.19 0.00 -- 10.9 100.0
01/11/2019 05:00 571.19 0.00 -- 11.1 100.0
01/11/2019 04:00 571.16 0.00 -- 11.8 100.0
01/11/2019 03:00 571.19 0.00 -- 12.6 100.0
01/11/2019 02:00 571.20 0.00 -- 13.5 100.0
01/11/2019 01:00 571.20 0.00 -- 14.4 100.0
01/11/2019 00:00 571.16 0.00 0.00 15.4 100.0
01/10/2019 23:00 571.19 0.00 -- 15.8 100.0
01/10/2019 22:00 571.17 0.00 -- 16.7 100.0
01/10/2019 21:00 571.19 0.00 -- 17.2 100.0
01/10/2019 20:00 571.16 0.00 -- 18.1 100.0
01/10/2019 19:00 571.16 0.00 -- 19.4 100.0
01/10/2019 18:00 571.19 0.00 -- 20.3 100.0
01/10/2019 17:00 571.18 0.00 -- 21.3 100.0
01/10/2019 16:00 571.21 0.00 -- 23.2 100.0
01/10/2019 15:00 571.20 0.00 -- 24.4 100.0
01/10/2019 14:00 571.19 0.00 -- 24.9 100.0
01/10/2019 13:00 571.20 0.00 -- 27.0 94.0
01/10/2019 12:00 571.19 0.00 -- 28.3 77.0
01/10/2019 11:00 571.18 0.00 -- 27.8 74.0
01/10/2019 10:00 571.20 0.00 -- 27.5 76.0
01/10/2019 09:00 571.20 0.00 -- 27.2 75.0
01/10/2019 08:00 571.20 0.00 -- 25.9 74.0
01/10/2019 07:00 571.22 0.00 -- 25.9 75.0
01/10/2019 06:00 571.20 0.00 -- 26.3 76.0
01/10/2019 05:00 571.20 0.00 -- 26.8 76.0
01/10/2019 04:00 571.21 0.00 -- 27.5 59.0
01/10/2019 03:00 571.21 0.00 -- 29.1 42.0
01/10/2019 02:00 571.21 0.00 -- 29.8 42.0
01/10/2019 01:00 571.20 0.00 -- 29.8 40.0
01/10/2019 00:00 571.22 0.00 0.00 30.0 37.0
01/09/2019 23:00 571.22 0.00 -- 31.5 34.0
01/09/2019 22:00 571.21 0.00 -- 31.8 34.0
01/09/2019 21:00 571.22 0.00 -- 32.0 33.0
01/09/2019 20:00 571.22 0.00 -- 31.8 34.0
01/09/2019 19:00 571.20 0.00 -- 31.0 33.0
01/09/2019 18:00 571.24 0.00 -- 31.8 32.0
01/09/2019 17:00 571.19 0.00 -- 31.8 29.0
01/09/2019 16:00 571.22 0.00 -- 32.2 29.0
01/09/2019 15:00 571.20 0.00 -- 32.0 31.0
01/09/2019 14:00 571.24 0.00 -- 32.2 33.0
01/09/2019 13:00 571.20 0.00 -- 32.4 46.0
01/09/2019 12:00 571.22 0.00 -- 32.5 69.0
01/09/2019 11:00 571.21 0.00 -- 32.3 100.0
01/09/2019 10:00 571.21 0.00 -- 32.2 100.0
01/09/2019 09:00 571.21 0.00 -- 32.0 100.0
01/09/2019 08:00 571.21 0.00 -- 31.9 100.0
01/09/2019 07:00 571.21 0.00 -- 31.8 100.0
01/09/2019 06:00 571.20 0.00 -- 31.7 100.0
01/09/2019 05:00 571.20 0.00 -- 31.6 100.0
01/09/2019 04:00 571.20 0.00 -- 31.4 100.0
01/09/2019 03:00 571.20 0.00 -- 31.3 100.0
01/09/2019 02:00 571.18 0.00 -- 31.5 100.0
01/09/2019 01:00 571.18 0.00 -- 31.3 100.0
01/09/2019 00:00 571.16 0.00 0.02 30.9 100.0
01/08/2019 23:00 571.17 0.00 -- 30.8 100.0
01/08/2019 22:00 571.18 0.00 -- 28.8 100.0
01/08/2019 21:00 571.13 0.00 -- 26.8 100.0
01/08/2019 20:00 571.17 0.00 -- 26.0 100.0
01/08/2019 19:00 571.18 0.00 -- 25.6 100.0
01/08/2019 18:00 571.16 0.00 -- 25.2 100.0
01/08/2019 17:00 571.18 0.00 -- 25.3 100.0
01/08/2019 16:00 571.17 0.00 -- 25.2 100.0
01/08/2019 15:00 571.14 0.00 -- 24.8 100.0
01/08/2019 14:00 571.18 0.00 -- 24.4 100.0
01/08/2019 13:00 571.17 0.00 -- 23.2 100.0
01/08/2019 12:00 571.18 0.00 -- 22.0 100.0
01/08/2019 11:00 571.18 0.00 -- 19.9 100.0
01/08/2019 10:00 571.18 0.00 -- 19.6 100.0
01/08/2019 09:00 571.18 0.00 -- 18.0 100.0
01/08/2019 08:00 571.17 0.00 -- 17.4 100.0
01/08/2019 07:00 571.17 0.00 -- 17.3 100.0
01/08/2019 06:00 571.16 0.00 -- 16.8 100.0
01/08/2019 05:00 571.17 0.00 -- 16.5 100.0
01/08/2019 04:00 571.14 0.00 -- 16.3 100.0
01/08/2019 03:00 571.17 0.00 -- 17.9 100.0
01/08/2019 02:00 571.16 0.00 -- 18.9 100.0
01/08/2019 01:00 571.19 0.00 -- 18.4 100.0
01/08/2019 00:00 571.16 0.00 0.00 17.7 100.0
01/07/2019 23:00 571.17 0.00 -- 16.7 100.0
01/07/2019 22:00 571.15 0.00 -- 15.7 100.0
01/07/2019 21:00 571.15 0.00 -- 15.6 100.0
01/07/2019 20:00 571.18 0.00 -- 15.6 100.0
01/07/2019 19:00 571.20 0.00 -- 18.2 100.0
01/07/2019 18:00 571.17 0.00 -- 18.2 100.0
01/07/2019 17:00 571.19 0.00 -- 17.8 100.0
01/07/2019 16:00 571.17 0.00 -- 20.0 100.0
01/07/2019 15:00 571.17 0.00 -- 20.8 100.0
01/07/2019 14:00 571.18 0.00 -- 20.6 100.0
01/07/2019 13:00 571.15 0.00 -- 19.9 100.0
01/07/2019 12:00 571.19 0.00 -- 18.6 100.0
01/07/2019 11:00 571.18 0.00 -- 17.4 100.0
01/07/2019 10:00 571.19 0.00 -- 16.0 100.0
01/07/2019 09:00 571.19 0.00 -- 14.4 100.0
01/07/2019 08:00 571.17 0.00 -- 10.1 100.0
01/07/2019 07:00 571.19 0.00 -- 9.7 100.0
01/07/2019 06:00 571.15 0.00 -- 10.3 100.0
01/07/2019 05:00 571.19 0.00 -- 12.4 100.0
01/07/2019 04:00 571.19 0.00 -- 13.1 100.0
01/07/2019 03:00 571.20 0.00 -- 14.3 100.0
01/07/2019 02:00 571.15 0.00 -- 15.3 100.0
01/07/2019 01:00 571.21 0.00 -- 16.6 100.0
01/07/2019 00:00 571.19 0.00 0.00 17.7 100.0
01/06/2019 23:00 571.21 0.00 -- 19.0 100.0
01/06/2019 22:00 571.20 0.00 -- 19.4 100.0
01/06/2019 21:00 571.21 0.00 -- 21.6 100.0
01/06/2019 20:00 571.17 0.00 -- 23.6 100.0
01/06/2019 19:00 571.20 0.00 -- 24.5 100.0
01/06/2019 18:00 571.20 0.00 -- 25.9 100.0
01/06/2019 17:00 571.19 0.00 -- 27.8 100.0
01/06/2019 16:00 571.20 0.00 -- 31.2 100.0
01/06/2019 15:00 571.21 0.00 -- 35.5 100.0
01/06/2019 14:00 571.23 0.00 -- 37.9 90.0
01/06/2019 13:00 571.20 0.00 -- 37.8 78.0
01/06/2019 12:00 571.21 0.00 -- 36.3 84.0
01/06/2019 11:00 571.18 0.00 -- 36.2 86.0
01/06/2019 10:00 571.22 0.00 -- 36.1 98.0
01/06/2019 09:00 571.20 0.00 -- 33.6 100.0
01/06/2019 08:00 571.21 0.00 -- 31.6 100.0
01/06/2019 07:00 571.20 0.00 -- 31.2 100.0
01/06/2019 06:00 571.22 0.00 -- 28.7 100.0
01/06/2019 05:00 571.20 0.00 -- 28.8 100.0
01/06/2019 04:00 571.20 0.00 -- 29.0 100.0
01/06/2019 03:00 571.21 0.00 -- 28.2 100.0
01/06/2019 02:00 571.21 0.00 -- 28.5 100.0
01/06/2019 01:00 571.23 0.00 -- 28.5 100.0
01/06/2019 00:00 571.23 0.00 0.00 26.6 100.0
01/05/2019 23:00 571.20 0.00 -- 29.1 100.0
01/05/2019 22:00 571.21 0.00 -- 30.5 100.0
01/05/2019 21:00 571.22 0.00 -- 31.8 100.0
01/05/2019 20:00 571.22 0.00 -- 34.0 100.0
01/05/2019 19:00 571.23 0.00 -- 34.7 100.0
01/05/2019 18:00 571.24 0.00 -- 34.3 100.0
01/05/2019 17:00 571.23 0.00 -- 34.1 100.0
01/05/2019 16:00 571.21 0.00 -- 33.2 100.0
01/05/2019 15:00 571.22 0.02 -- 33.8 100.0
01/05/2019 14:00 571.23 0.00 -- 35.2 100.0
01/05/2019 13:00 571.22 0.00 -- 36.3 100.0
01/05/2019 12:00 571.24 0.02 -- 36.5 100.0
01/05/2019 11:00 571.20 0.00 -- 35.1 100.0
01/05/2019 10:00 571.27 0.00 -- 32.5 100.0
01/05/2019 09:00 571.22 0.00 -- 30.5 100.0
01/05/2019 08:00 571.19 0.00 -- 28.2 100.0
01/05/2019 07:00 571.19 0.00 -- 28.2 100.0
01/05/2019 06:00 571.22 0.00 -- 26.3 100.0
01/05/2019 05:00 571.22 0.00 -- 26.2 100.0
01/05/2019 04:00 571.24 0.00 -- 26.2 100.0
01/05/2019 03:00 571.19 0.00 -- 26.4 100.0
01/05/2019 02:00 571.26 0.00 -- 27.1 100.0
01/05/2019 01:00 571.22 0.00 -- 27.0 100.0
01/05/2019 00:00 571.22 0.00 0.04 27.4 100.0
01/04/2019 23:00 571.26 0.00 -- 28.1 100.0
01/04/2019 22:00 571.24 0.00 -- 29.1 100.0
01/04/2019 21:00 571.25 0.00 -- 31.6 100.0
01/04/2019 20:00 571.25 0.00 -- 34.4 100.0
01/04/2019 19:00 571.25 0.00 -- 36.9 100.0
01/04/2019 18:00 571.23 0.00 -- 35.7 100.0
01/04/2019 17:00 571.23 0.00 -- 37.6 100.0
01/04/2019 16:00 571.24 0.00 -- 37.3 100.0
01/04/2019 15:00 571.24 0.02 -- 38.6 100.0
01/04/2019 14:00 571.23 0.09 -- 39.5 100.0
01/04/2019 13:00 571.25 0.03 -- 38.5 100.0
01/04/2019 12:00 571.25 0.00 -- 37.3 100.0
01/04/2019 11:00 571.25 0.00 -- 35.9 100.0
01/04/2019 10:00 571.26 0.00 -- 34.9 100.0
01/04/2019 09:00 571.26 0.00 -- 31.3 100.0
01/04/2019 08:00 571.24 0.00 -- 28.0 100.0
01/04/2019 07:00 571.24 0.00 -- 30.3 100.0
01/04/2019 06:00 571.22 0.00 -- 29.8 100.0
01/04/2019 05:00 571.23 0.00 -- 27.6 100.0
01/04/2019 04:00 571.27 0.00 -- 28.2 100.0
01/04/2019 03:00 571.24 0.00 -- 28.3 100.0
01/04/2019 02:00 571.26 0.00 -- 27.5 100.0
01/04/2019 01:00 571.23 0.00 -- 26.8 100.0
01/04/2019 00:00 571.25 0.00 0.14 26.7 100.0
01/03/2019 23:00 571.24 0.00 -- 27.9 100.0
01/03/2019 22:00 571.26 0.00 -- 27.7 100.0
01/03/2019 21:00 571.23 0.00 -- 29.3 100.0
01/03/2019 20:00 571.26 0.00 -- 29.7 100.0
01/03/2019 19:00 571.25 0.00 -- 30.0 100.0
01/03/2019 18:00 571.26 0.00 -- 30.2 100.0
01/03/2019 17:00 571.26 0.00 -- 31.0 100.0
01/03/2019 16:00 571.26 0.00 -- 32.1 100.0
01/03/2019 15:00 571.27 0.00 -- 33.0 100.0
01/03/2019 14:00 571.25 0.00 -- 32.0 100.0
01/03/2019 13:00 571.27 0.00 -- 30.8 100.0
01/03/2019 12:00 571.27 0.00 -- 28.1 100.0
01/03/2019 11:00 571.26 0.00 -- 25.5 100.0
01/03/2019 10:00 571.27 0.00 -- 22.7 100.0
01/03/2019 09:00 571.27 0.00 -- 21.0 100.0
01/03/2019 08:00 571.26 0.00 -- 20.3 100.0
01/03/2019 07:00 571.24 0.00 -- 20.2 100.0
01/03/2019 06:00 571.26 0.00 -- 21.1 100.0
01/03/2019 05:00 571.26 0.00 -- 21.9 100.0
01/03/2019 04:00 571.27 0.00 -- 21.6 100.0
01/03/2019 03:00 571.25 0.00 -- 22.1 100.0
01/03/2019 02:00 571.27 0.00 -- 22.1 100.0
01/03/2019 01:00 571.22 0.00 -- 20.9 100.0
01/03/2019 00:00 571.25 0.00 0.00 20.5 100.0
01/02/2019 23:00 571.25 0.00 -- 19.9 100.0
01/02/2019 22:00 571.26 0.00 -- 18.9 100.0
01/02/2019 21:00 571.25 0.00 -- 18.0 100.0
01/02/2019 20:00 571.28 0.00 -- 16.5 100.0
01/02/2019 19:00 571.24 0.00 -- 17.4 100.0
01/02/2019 18:00 571.27 0.00 -- 19.3 100.0
01/02/2019 17:00 571.25 0.00 -- 21.7 100.0
01/02/2019 16:00 571.26 0.00 -- 24.8 100.0
01/02/2019 15:00 571.26 0.00 -- 25.9 100.0
01/02/2019 14:00 571.25 0.00 -- 26.0 100.0
01/02/2019 13:00 571.23 0.00 -- 26.0 100.0
01/02/2019 12:00 571.27 0.00 -- 23.9 100.0
01/02/2019 11:00 571.25 0.00 -- 22.8 100.0
01/02/2019 10:00 571.26 0.00 -- 21.0 100.0
01/02/2019 09:00 571.24 0.00 -- 18.9 100.0
01/02/2019 08:00 571.24 0.00 -- 18.6 100.0
01/02/2019 07:00 571.26 0.00 -- 19.1 100.0
01/02/2019 06:00 571.25 0.00 -- 19.5 100.0
01/02/2019 05:00 571.26 0.00 -- 19.8 100.0
01/02/2019 04:00 571.25 0.00 -- 20.2 100.0
01/02/2019 03:00 571.25 0.00 -- 20.5 100.0
01/02/2019 02:00 571.26 0.00 -- 22.2 100.0
01/02/2019 01:00 571.27 0.00 -- 23.7 100.0
01/02/2019 00:00 571.25 0.00 0.00 25.2 100.0
01/01/2019 23:00 571.27 0.00 -- 27.1 100.0
01/01/2019 22:00 571.26 0.00 -- 28.6 100.0
01/01/2019 21:00 571.25 0.00 -- 30.0 100.0
01/01/2019 20:00 571.27 0.00 -- 31.0 100.0
01/01/2019 19:00 571.25 0.00 -- 32.1 100.0
01/01/2019 18:00 571.25 0.00 -- 32.9 100.0
01/01/2019 17:00 571.25 0.00 -- 33.6 100.0
01/01/2019 16:00 571.26 0.00 -- 34.4 100.0
01/01/2019 15:00 571.29 0.00 -- 36.0 100.0
01/01/2019 14:00 571.25 0.07 -- 37.7 61.0
01/01/2019 13:00 571.27 0.15 -- 38.9 38.0
01/01/2019 12:00 571.25 0.30 -- 41.1 33.0
01/01/2019 11:00 571.25 0.16 -- 40.5 44.0
01/01/2019 10:00 571.23 0.04 -- 34.3 100.0
01/01/2019 09:00 571.25 0.03 -- 32.5 100.0
01/01/2019 08:00 571.25 0.00 -- 32.0 100.0
01/01/2019 07:00 571.31 0.00 -- 32.0 100.0
01/01/2019 06:00 571.22 0.00 -- 31.9 100.0
01/01/2019 05:00 571.24 0.00 -- 31.8 100.0
01/01/2019 04:00 571.25 0.00 -- 31.9 100.0
01/01/2019 03:00 571.25 0.00 -- 31.9 100.0
01/01/2019 02:00 571.25 0.00 -- 31.9 100.0
01/01/2019 01:00 571.24 0.00 -- 32.0 100.0
01/01/2019 00:00 571.24 0.00 0.75 32.0 100.0
12/31/2018 23:00 571.24 0.00 -- 32.1 100.0
12/31/2018 22:00 571.24 0.00 -- 32.1 100.0
12/31/2018 21:00 571.23 0.00 -- 32.2 100.0
12/31/2018 20:00 571.23 0.00 -- 32.2 100.0
12/31/2018 19:00 571.23 0.00 -- 32.3 100.0
12/31/2018 18:00 571.23 0.00 -- 32.3 100.0
12/31/2018 17:00 571.22 0.00 -- 32.3 100.0
12/31/2018 16:00 571.22 0.00 -- 32.4 100.0
12/31/2018 15:00 571.22 0.00 -- 32.4 100.0
12/31/2018 14:00 571.22 0.00 -- 32.5 100.0
12/31/2018 13:00 571.21 0.00 -- 32.5 100.0
12/31/2018 12:00 571.21 0.00 -- 32.6 100.0
12/31/2018 11:00 571.21 0.00 -- 32.6 100.0
12/31/2018 10:00 571.22 0.00 -- 28.8 100.0
12/31/2018 09:00 571.23 0.00 -- 27.0 100.0
12/31/2018 08:00 571.23 0.00 -- 25.4 100.0
12/31/2018 07:00 571.22 0.00 -- 24.9 100.0
12/31/2018 06:00 571.21 0.00 -- 24.9 100.0
12/31/2018 05:00 571.22 0.00 -- 24.9 100.0
12/31/2018 04:00 571.23 0.00 -- 25.0 100.0
12/31/2018 03:00 571.21 0.00 -- 25.0 100.0
12/31/2018 02:00 571.21 0.00 -- 25.1 100.0
12/31/2018 01:00 571.23 0.00 -- 24.9 100.0
12/31/2018 00:00 571.21 0.00 0.00 25.2 100.0
12/30/2018 23:00 571.22 0.00 -- 25.2 100.0
12/30/2018 22:00 571.22 0.00 -- 25.7 100.0
12/30/2018 21:00 571.22 0.00 -- 25.6 100.0
12/30/2018 20:00 571.21 0.00 -- 25.3 100.0
12/30/2018 19:00 571.23 0.00 -- 25.0 100.0
12/30/2018 18:00 571.21 0.00 -- 23.1 100.0
12/30/2018 17:00 571.23 0.00 -- 24.5 100.0
12/30/2018 16:00 571.22 0.00 -- 28.0 100.0
12/30/2018 15:00 571.22 0.00 -- 28.1 100.0
12/30/2018 14:00 571.23 0.00 -- 27.7 100.0
12/30/2018 13:00 571.22 0.00 -- 26.6 100.0
12/30/2018 12:00 571.22 0.00 -- 25.7 100.0
12/30/2018 11:00 571.25 0.00 -- 24.5 100.0
12/30/2018 10:00 571.24 0.00 -- 22.3 100.0
12/30/2018 09:00 571.23 0.00 -- 21.0 100.0
12/30/2018 08:00 571.22 0.00 -- 19.9 100.0
12/30/2018 07:00 571.23 0.00 -- 19.6 100.0
12/30/2018 06:00 571.21 0.00 -- 19.6 100.0
12/30/2018 05:00 571.22 0.00 -- 19.4 100.0
12/30/2018 04:00 571.25 0.00 -- 18.9 100.0
12/30/2018 03:00 571.20 0.00 -- 19.2 100.0
12/30/2018 02:00 571.26 0.00 -- 20.1 100.0
12/30/2018 01:00 571.19 0.00 -- 21.1 100.0
12/30/2018 00:00 571.24 0.00 0.00 21.6 100.0
12/29/2018 23:00 571.22 0.00 -- 22.6 100.0
12/29/2018 22:00 571.22 0.00 -- 23.8 100.0
12/29/2018 21:00 571.23 0.00 -- 25.1 100.0
12/29/2018 20:00 571.22 0.00 -- 26.9 100.0
12/29/2018 19:00 571.25 0.00 -- 29.2 100.0
12/29/2018 18:00 571.23 0.00 -- 32.1 100.0
12/29/2018 17:00 571.19 0.00 -- 34.5 95.0
12/29/2018 16:00 571.22 0.00 -- 37.3 56.0
12/29/2018 15:00 571.24 0.00 -- 40.2 44.0
12/29/2018 14:00 571.24 0.09 -- 40.8 41.0
12/29/2018 13:00 571.21 0.14 -- 42.1 41.0
12/29/2018 12:00 571.23 0.13 -- 42.5 46.0
12/29/2018 11:00 571.23 0.10 -- 42.3 64.0
12/29/2018 10:00 571.19 0.07 -- 41.6 78.0
12/29/2018 09:00 571.24 0.02 -- 39.1 94.0
12/29/2018 08:00 571.21 0.04 -- 36.7 96.0
12/29/2018 07:00 571.32 0.02 -- 36.3 100.0
12/29/2018 06:00 571.24 0.00 -- 31.7 100.0
12/29/2018 05:00 571.21 0.00 -- 31.8 100.0
12/29/2018 04:00 571.26 0.00 -- 31.8 100.0
12/29/2018 03:00 571.21 0.00 -- 31.8 100.0
12/29/2018 02:00 571.25 0.00 -- 32.0 100.0
12/29/2018 01:00 571.23 0.00 -- 31.8 100.0
12/29/2018 00:00 571.26 0.00 0.61 32.0 100.0
12/28/2018 23:00 571.24 0.00 -- 32.0 100.0
12/28/2018 22:00 571.23 0.00 -- 32.0 100.0
12/28/2018 21:00 571.26 0.00 -- 32.1 100.0
12/28/2018 20:00 571.23 0.00 -- 32.0 100.0
12/28/2018 19:00 571.24 0.00 -- 31.8 100.0
12/28/2018 18:00 571.26 0.01 -- 31.8 100.0
12/28/2018 17:00 571.23 0.00 -- 31.8 100.0
12/28/2018 16:00 571.23 0.00 -- 31.8 100.0
12/28/2018 15:00 571.23 0.00 -- 31.0 100.0
12/28/2018 14:00 571.23 0.00 -- 30.2 100.0
12/28/2018 13:00 571.23 0.00 -- 29.4 100.0
12/28/2018 12:00 571.23 0.00 -- 28.6 100.0
12/28/2018 11:00 571.23 0.00 -- 27.8 100.0
12/28/2018 10:00 571.22 0.00 -- 25.3 100.0
12/28/2018 09:00 571.23 0.00 -- 22.7 100.0
12/28/2018 08:00 571.21 0.00 -- 22.3 100.0
12/28/2018 07:00 571.20 0.00 -- 22.7 100.0
12/28/2018 06:00 571.19 0.00 -- 22.6 100.0
12/28/2018 05:00 571.17 0.00 -- 22.7 100.0
12/28/2018 04:00 571.19 0.00 -- 23.5 100.0
12/28/2018 03:00 571.21 0.00 -- 23.3 100.0
12/28/2018 02:00 571.19 0.00 -- 22.6 100.0
12/28/2018 01:00 571.19 0.00 -- 21.4 100.0
12/28/2018 00:00 571.18 0.00 0.01 20.1 100.0
12/27/2018 23:00 571.21 0.00 -- 21.3 100.0
12/27/2018 22:00 571.19 0.00 -- 21.3 100.0
12/27/2018 21:00 571.20 0.00 -- 21.0 100.0
12/27/2018 20:00 571.18 0.00 -- 21.9 100.0
12/27/2018 19:00 571.21 0.00 -- 21.4 100.0
12/27/2018 18:00 571.17 0.00 -- 21.4 100.0
12/27/2018 17:00 571.19 0.00 -- 23.4 100.0
12/27/2018 16:00 571.19 0.00 -- 25.8 100.0
12/27/2018 15:00 571.20 0.00 -- 26.8 100.0
12/27/2018 14:00 571.21 0.00 -- 26.3 100.0
12/27/2018 13:00 571.21 0.00 -- 25.2 100.0
12/27/2018 12:00 571.18 0.00 -- 23.8 100.0
12/27/2018 11:00 571.20 0.00 -- 22.1 100.0
12/27/2018 10:00 571.21 0.00 -- 20.8 100.0
12/27/2018 09:00 571.21 0.00 -- 19.9 100.0
12/27/2018 08:00 571.21 0.00 -- 19.9 100.0
12/27/2018 07:00 571.19 0.00 -- 16.2 100.0
12/27/2018 06:00 571.22 0.00 -- 17.1 100.0
12/27/2018 05:00 571.16 0.00 -- 17.9 100.0
12/27/2018 04:00 571.21 0.00 -- 19.6 100.0
12/27/2018 03:00 571.19 0.00 -- 21.1 100.0
12/27/2018 02:00 571.23 0.00 -- 22.4 100.0
12/27/2018 01:00 571.22 0.00 -- 25.3 100.0
12/27/2018 00:00 571.21 0.00 0.00 26.7 100.0
12/26/2018 23:00 571.22 0.00 -- 26.5 100.0
12/26/2018 22:00 571.22 0.00 -- 23.2 100.0
12/26/2018 21:00 571.21 0.00 -- 22.6 100.0
12/26/2018 20:00 571.22 0.00 -- 22.5 100.0
12/26/2018 19:00 571.21 0.00 -- 24.1 100.0
12/26/2018 18:00 571.22 0.00 -- 24.4 100.0
12/26/2018 17:00 571.21 0.00 -- 25.9 100.0
12/26/2018 16:00 571.21 0.00 -- 28.8 100.0
12/26/2018 15:00 571.22 0.00 -- 28.9 100.0
12/26/2018 14:00 571.23 0.00 -- 28.3 100.0
12/26/2018 13:00 571.22 0.00 -- 27.6 100.0
12/26/2018 12:00 571.21 0.00 -- 26.1 100.0
12/26/2018 11:00 571.21 0.00 -- 25.3 100.0
12/26/2018 10:00 571.21 0.00 -- 24.5 100.0
12/26/2018 09:00 571.22 0.00 -- 23.6 100.0
12/26/2018 08:00 571.22 0.00 -- 22.8 100.0
12/26/2018 07:00 571.22 0.00 -- 22.0 100.0
12/26/2018 06:00 571.22 0.00 -- 21.2 100.0
12/26/2018 05:00 571.23 0.00 -- 20.3 100.0
12/26/2018 04:00 571.23 0.00 -- 19.5 100.0
12/26/2018 03:00 571.23 0.00 -- 18.7 100.0
12/26/2018 02:00 571.24 0.00 -- 17.6 100.0
12/26/2018 01:00 571.22 0.00 -- 18.0 100.0
12/26/2018 00:00 571.24 0.00 0.00 16.9 100.0
12/25/2018 23:00 571.23 0.00 -- 18.5 100.0
12/25/2018 22:00 571.23 0.00 -- 20.1 100.0
12/25/2018 21:00 571.23 0.00 -- 20.6 100.0
12/25/2018 20:00 571.24 0.00 -- 20.0 100.0
12/25/2018 19:00 571.24 0.00 -- 22.1 100.0
12/25/2018 18:00 571.24 0.00 -- 22.8 100.0
12/25/2018 17:00 571.25 0.00 -- 23.7 100.0
12/25/2018 16:00 571.22 0.00 -- 24.7 100.0
12/25/2018 15:00 571.23 0.00 -- 25.7 100.0
12/25/2018 14:00 571.26 0.00 -- 26.0 100.0
12/25/2018 13:00 571.22 0.00 -- 25.4 100.0
12/25/2018 12:00 571.22 0.00 -- 24.4 100.0
12/25/2018 11:00 571.24 0.00 -- 23.1 100.0
12/25/2018 10:00 571.25 0.00 -- 21.5 100.0
12/25/2018 09:00 571.24 0.00 -- 20.2 100.0
12/25/2018 08:00 571.25 0.00 -- 19.9 100.0
12/25/2018 07:00 571.23 0.00 -- 20.6 100.0
12/25/2018 06:00 571.25 0.00 -- 21.3 100.0
12/25/2018 05:00 571.24 0.00 -- 22.3 100.0
12/25/2018 04:00 571.24 0.00 -- 23.6 100.0
12/25/2018 03:00 571.24 0.00 -- 24.7 100.0
12/25/2018 02:00 571.24 0.00 -- 25.7 100.0
12/25/2018 01:00 571.24 0.00 -- 27.5 100.0
12/25/2018 00:00 571.26 0.00 0.00 28.8 100.0
12/24/2018 23:00 571.24 0.00 -- 30.0 100.0
12/24/2018 22:00 571.24 0.00 -- 30.3 100.0
12/24/2018 21:00 571.25 0.00 -- 30.5 100.0
12/24/2018 20:00 571.25 0.00 -- 30.0 100.0
12/24/2018 19:00 571.25 0.00 -- 30.6 100.0
12/24/2018 18:00 571.26 0.00 -- 31.2 100.0
12/24/2018 17:00 571.24 0.00 -- 31.7 100.0
12/24/2018 16:00 571.26 0.00 -- 32.4 100.0
12/24/2018 15:00 571.25 0.00 -- 33.1 100.0
12/24/2018 14:00 571.24 0.00 -- 33.3 100.0
12/24/2018 13:00 571.26 0.00 -- 32.0 100.0
12/24/2018 12:00 571.25 0.00 -- 30.2 100.0
12/24/2018 11:00 571.25 0.00 -- 28.4 100.0
12/24/2018 10:00 571.26 0.00 -- 25.2 100.0
12/24/2018 09:00 571.25 0.00 -- 22.9 100.0
12/24/2018 08:00 571.25 0.00 -- 21.4 100.0
12/24/2018 07:00 571.24 0.00 -- 21.1 100.0
12/24/2018 06:00 571.25 0.00 -- 20.9 100.0
12/24/2018 05:00 571.25 0.00 -- 20.8 100.0
12/24/2018 04:00 571.25 0.00 -- 20.8 100.0
12/24/2018 03:00 571.27 0.00 -- 19.3 100.0
12/24/2018 02:00 571.25 0.00 -- 18.5 100.0
12/24/2018 01:00 571.26 0.00 -- 18.1 100.0
12/24/2018 00:00 571.23 0.00 0.00 18.3 100.0
12/23/2018 23:00 571.25 0.00 -- 19.0 100.0
12/23/2018 22:00 571.22 0.00 -- 20.8 100.0
12/23/2018 21:00 571.28 0.00 -- 21.4 100.0
12/23/2018 20:00 571.25 0.00 -- 22.7 100.0
12/23/2018 19:00 571.26 0.00 -- 24.8 100.0
12/23/2018 18:00 571.25 0.00 -- 26.3 100.0
12/23/2018 17:00 571.25 0.00 -- 27.3 100.0
12/23/2018 16:00 571.27 0.00 -- 27.9 100.0
12/23/2018 15:00 571.23 0.00 -- 28.4 100.0
12/23/2018 14:00 571.23 0.00 -- 28.1 100.0
12/23/2018 13:00 571.25 0.00 -- 27.6 100.0
12/23/2018 12:00 571.24 0.00 -- 27.2 100.0
12/23/2018 11:00 571.26 0.00 -- 25.8 100.0
12/23/2018 10:00 571.28 0.00 -- 24.7 100.0
12/23/2018 09:00 571.24 0.00 -- 23.6 100.0
12/23/2018 08:00 571.25 0.00 -- 23.4 100.0
12/23/2018 07:00 571.25 0.00 -- 24.5 100.0
12/23/2018 06:00 571.23 0.00 -- 25.7 100.0
12/23/2018 05:00 571.25 0.00 -- 26.4 100.0
12/23/2018 04:00 571.23 0.00 -- 27.4 100.0
12/23/2018 03:00 571.30 0.00 -- 28.3 100.0
12/23/2018 02:00 571.24 0.00 -- 29.2 100.0
12/23/2018 01:00 571.23 0.00 -- 29.7 100.0
12/23/2018 00:00 571.25 0.00 0.00 30.5 100.0
12/22/2018 23:00 571.28 0.00 -- 30.6 100.0
12/22/2018 22:00 571.24 0.00 -- 30.6 100.0
12/22/2018 21:00 571.22 0.00 -- 30.9 100.0
12/22/2018 20:00 571.30 0.00 -- 30.5 100.0
12/22/2018 19:00 571.24 0.00 -- 31.4 100.0
12/22/2018 18:00 571.28 0.00 -- 33.2 69.0
12/22/2018 17:00 571.22 0.00 -- 34.9 40.0
12/22/2018 16:00 571.19 0.00 -- 36.7 34.0
12/22/2018 15:00 571.23 0.00 -- 39.5 30.0
12/22/2018 14:00 571.22 0.00 -- 40.6 30.0
12/22/2018 13:00 571.22 0.00 -- 41.3 28.0
12/22/2018 12:00 571.19 0.01 -- 43.4 28.0
12/22/2018 11:00 571.21 0.02 -- 47.9 28.0
12/22/2018 10:00 571.20 0.00 -- 48.4 28.0
12/22/2018 09:00 571.20 0.00 -- 46.4 28.0
12/22/2018 08:00 571.18 0.00 -- 46.9 27.0
12/22/2018 07:00 571.19 0.00 -- 47.4 28.0
12/22/2018 06:00 571.17 0.00 -- 49.5 28.0
12/22/2018 05:00 571.17 0.00 -- 50.4 28.0
12/22/2018 04:00 571.15 0.00 -- 50.7 27.0
12/22/2018 03:00 571.16 0.00 -- 49.3 28.0
12/22/2018 02:00 571.16 0.00 -- 49.5 27.0
12/22/2018 01:00 571.17 0.00 -- 49.0 27.0
12/22/2018 00:00 571.11 0.00 0.03 51.6 27.0
12/21/2018 23:00 571.14 0.00 -- 52.2 28.0
12/21/2018 22:00 571.12 0.00 -- 51.0 31.0
12/21/2018 21:00 571.12 0.00 -- 45.4 31.0
12/21/2018 20:00 571.08 0.02 -- 49.2 32.0
12/21/2018 19:00 571.09 0.01 -- 52.8 31.0
12/21/2018 18:00 571.13 0.05 -- 52.3 31.0
12/21/2018 17:00 571.12 0.04 -- 52.7 32.0
12/21/2018 16:00 571.11 0.00 -- 52.3 33.0
12/21/2018 15:00 571.08 0.04 -- 52.0 37.0
12/21/2018 14:00 571.10 0.04 -- 42.8 67.0
12/21/2018 13:00 571.08 0.03 -- 34.3 71.0
12/21/2018 12:00 571.09 0.03 -- 34.0 75.0
12/21/2018 11:00 571.06 0.06 -- 33.7 81.0
12/21/2018 10:00 571.07 0.22 -- 33.1 84.0
12/21/2018 09:00 571.06 0.00 -- 32.6 93.0
12/21/2018 08:00 571.00 0.00 -- 32.3 99.0
12/21/2018 07:00 571.05 0.01 -- 32.6 100.0
12/21/2018 06:00 571.04 0.00 -- 31.7 100.0
12/21/2018 05:00 571.02 0.00 -- 31.5 100.0
12/21/2018 04:00 571.03 0.00 -- 31.2 100.0
12/21/2018 03:00 571.03 0.00 -- 30.8 100.0
12/21/2018 02:00 571.04 0.00 -- 30.5 100.0
12/21/2018 01:00 571.03 0.00 -- 30.5 100.0
12/21/2018 00:00 571.03 0.00 0.55 30.7 100.0
12/20/2018 23:00 571.02 0.00 -- 29.8 100.0
12/20/2018 22:00 571.06 0.00 -- 28.9 100.0
12/20/2018 21:00 571.04 0.00 -- 28.7 100.0
12/20/2018 20:00 571.04 0.00 -- 27.9 100.0
12/20/2018 19:00 571.04 0.00 -- 27.9 100.0
12/20/2018 18:00 571.05 0.00 -- 28.5 100.0
12/20/2018 17:00 571.04 0.00 -- 28.8 100.0
12/20/2018 16:00 571.03 0.00 -- 31.7 100.0
12/20/2018 15:00 571.08 0.01 -- 35.7 100.0
12/20/2018 14:00 571.04 0.00 -- 36.5 100.0
12/20/2018 13:00 571.05 0.00 -- 38.8 100.0
12/20/2018 12:00 571.04 0.00 -- 37.0 100.0
12/20/2018 11:00 571.04 0.00 -- 29.3 100.0
12/20/2018 10:00 571.05 0.00 -- 24.2 100.0
12/20/2018 09:00 571.04 0.00 -- 18.7 100.0
12/20/2018 08:00 571.04 0.00 -- 16.8 100.0
12/20/2018 07:00 571.05 0.00 -- 17.0 100.0
12/20/2018 06:00 571.04 0.00 -- 18.0 100.0
12/20/2018 05:00 571.06 0.00 -- 19.0 100.0
12/20/2018 04:00 571.05 0.00 -- 20.6 100.0
12/20/2018 03:00 571.05 0.00 -- 22.0 100.0
12/20/2018 02:00 571.06 0.00 -- 24.0 100.0
12/20/2018 01:00 571.05 0.00 -- 23.9 100.0
12/20/2018 00:00 571.07 0.00 0.01 24.4 100.0
12/19/2018 23:00 571.05 0.00 -- 26.6 100.0
12/19/2018 22:00 571.06 0.00 -- 25.4 100.0
12/19/2018 21:00 571.05 0.00 -- 25.6 100.0
12/19/2018 20:00 571.06 0.00 -- 28.0 100.0
12/19/2018 19:00 571.07 0.00 -- 26.7 100.0
12/19/2018 18:00 571.07 0.00 -- 27.6 100.0
12/19/2018 17:00 571.06 0.00 -- 26.4 100.0
12/19/2018 16:00 571.06 0.00 -- 27.2 100.0
12/19/2018 15:00 571.06 0.00 -- 30.5 100.0
12/19/2018 14:00 571.07 0.00 -- 31.0 100.0
12/19/2018 13:00 571.08 0.00 -- 28.7 100.0
12/19/2018 12:00 571.04 0.00 -- 27.0 100.0
12/19/2018 11:00 571.05 0.00 -- 25.5 100.0
12/19/2018 10:00 571.07 0.00 -- 23.4 100.0
12/19/2018 09:00 571.10 0.00 -- 21.9 100.0
12/19/2018 08:00 571.09 0.00 -- 20.3 100.0
12/19/2018 07:00 571.06 0.00 -- 20.6 100.0
12/19/2018 06:00 571.05 0.00 -- 20.2 100.0
12/19/2018 05:00 571.05 0.00 -- 20.1 100.0
12/19/2018 04:00 571.07 0.00 -- 19.8 100.0
12/19/2018 03:00 571.09 0.00 -- 19.7 100.0
12/19/2018 02:00 571.10 0.00 -- 19.7 100.0
12/19/2018 01:00 571.08 0.00 -- 19.5 100.0
12/19/2018 00:00 571.09 0.00 0.00 19.3 100.0
12/18/2018 23:00 571.07 0.00 -- 19.1 100.0
12/18/2018 22:00 571.07 0.00 -- 19.2 100.0
12/18/2018 21:00 571.08 0.00 -- 19.2 100.0
12/18/2018 20:00 571.11 0.00 -- 19.5 100.0
12/18/2018 19:00 571.05 0.00 -- 19.9 100.0
12/18/2018 18:00 571.08 0.00 -- 21.0 100.0
12/18/2018 17:00 571.08 0.00 -- 21.6 100.0
12/18/2018 16:00 571.11 0.00 -- 22.8 100.0
12/18/2018 15:00 571.08 0.00 -- 24.2 100.0
12/18/2018 14:00 571.05 0.00 -- 23.6 100.0
12/18/2018 13:00 571.09 0.00 -- 22.8 100.0
12/18/2018 12:00 571.07 0.00 -- 23.0 100.0
12/18/2018 11:00 571.11 0.00 -- 23.1 100.0
12/18/2018 10:00 571.09 0.00 -- 21.8 100.0
12/18/2018 09:00 571.07 0.00 -- 19.2 100.0
12/18/2018 08:00 571.07 0.00 -- 18.8 100.0
12/18/2018 07:00 571.09 0.00 -- 18.3 100.0
12/18/2018 06:00 571.09 0.00 -- 18.8 100.0
12/18/2018 05:00 571.09 0.00 -- 19.6 100.0
12/18/2018 04:00 571.08 0.00 -- 20.5 100.0
12/18/2018 03:00 571.07 0.00 -- 21.8 100.0
12/18/2018 02:00 571.10 0.00 -- 23.8 100.0
12/18/2018 01:00 571.09 0.00 -- 25.9 100.0
12/18/2018 00:00 571.14 0.00 0.00 30.3 85.0
12/17/2018 23:00 571.10 0.00 -- 31.8 44.0
12/17/2018 22:00 571.09 0.00 -- 32.7 43.0
12/17/2018 21:00 571.10 0.00 -- 32.4 40.0
12/17/2018 20:00 571.11 0.00 -- 32.8 37.0
12/17/2018 19:00 571.11 0.00 -- 33.4 35.0
12/17/2018 18:00 571.11 0.02 -- 34.2 33.0
12/17/2018 17:00 571.11 0.04 -- 34.1 33.0
12/17/2018 16:00 571.12 0.07 -- 34.4 33.0
12/17/2018 15:00 571.10 0.01 -- 34.6 33.0
12/17/2018 14:00 571.12 0.00 -- 34.6 33.0
12/17/2018 13:00 571.11 0.00 -- 33.6 34.0
12/17/2018 12:00 571.11 0.00 -- 33.7 34.0
12/17/2018 11:00 571.09 0.00 -- 32.6 35.0
12/17/2018 10:00 571.11 0.00 -- 32.2 35.0
12/17/2018 09:00 571.11 0.00 -- 31.3 36.0
12/17/2018 08:00 571.11 0.00 -- 30.7 37.0
12/17/2018 07:00 571.11 0.00 -- 30.6 37.0
12/17/2018 06:00 571.11 0.00 -- 30.2 37.0
12/17/2018 05:00 571.10 0.00 -- 30.2 38.0
12/17/2018 04:00 571.11 0.00 -- 30.2 37.0
12/17/2018 03:00 571.11 0.00 -- 30.1 38.0
12/17/2018 02:00 571.12 0.00 -- 30.0 38.0
12/17/2018 01:00 571.10 0.00 -- 30.4 39.0
12/17/2018 00:00 571.10 0.00 0.14 30.5 39.0
12/16/2018 23:00 571.08 0.00 -- 30.9 38.0
12/16/2018 22:00 571.07 0.00 -- 32.6 38.0
12/16/2018 21:00 571.09 0.00 -- 32.9 39.0
12/16/2018 20:00 571.05 0.00 -- 32.6 39.0
12/16/2018 19:00 571.11 0.00 -- 31.7 39.0
12/16/2018 18:00 571.09 0.00 -- 31.4 39.0
12/16/2018 17:00 571.10 0.00 -- 33.4 40.0
12/16/2018 16:00 571.09 0.00 -- 34.3 38.0
12/16/2018 15:00 571.08 0.00 -- 35.3 39.0
12/16/2018 14:00 571.10 0.00 -- 35.8 39.0
12/16/2018 13:00 571.11 0.00 -- 34.1 40.0
12/16/2018 12:00 571.08 0.00 -- 34.0 39.0
12/16/2018 11:00 571.07 0.00 -- 31.5 40.0
12/16/2018 10:00 571.08 0.00 -- 30.0 41.0
12/16/2018 09:00 571.09 0.00 -- 26.5 41.0
12/16/2018 08:00 571.10 0.00 -- 25.6 42.0
12/16/2018 07:00 571.08 0.00 -- 25.2 41.0
12/16/2018 06:00 571.12 0.00 -- 24.9 42.0
12/16/2018 05:00 571.08 0.00 -- 24.8 42.0
12/16/2018 04:00 571.13 0.00 -- 25.0 41.0
12/16/2018 03:00 571.08 0.00 -- 25.6 41.0
12/16/2018 02:00 571.08 0.00 -- 25.9 40.0
12/16/2018 01:00 571.09 0.00 -- 26.2 38.0
12/16/2018 00:00 571.11 0.00 0.00 26.5 38.0
12/15/2018 23:00 571.12 0.00 -- 27.2 37.0
12/15/2018 22:00 571.12 0.00 -- 28.3 37.0
12/15/2018 21:00 571.04 0.00 -- 30.0 36.0
12/15/2018 20:00 571.12 0.00 -- 30.1 36.0
12/15/2018 19:00 571.09 0.00 -- 30.2 35.0
12/15/2018 18:00 571.09 0.00 -- 31.7 35.0
12/15/2018 17:00 571.09 0.00 -- 33.4 35.0
12/15/2018 16:00 571.11 0.00 -- 36.5 34.0
12/15/2018 15:00 571.10 0.00 -- 40.0 34.0
12/15/2018 14:00 571.10 0.00 -- 42.6 34.0
12/15/2018 13:00 571.10 0.00 -- 43.8 34.0
12/15/2018 12:00 571.10 0.00 -- 43.5 35.0
12/15/2018 11:00 571.11 0.00 -- 43.1 35.0
12/15/2018 10:00 571.13 0.00 -- 39.9 36.0
12/15/2018 09:00 571.12 0.00 -- 33.1 37.0
12/15/2018 08:00 571.12 0.00 -- 31.4 37.0
12/15/2018 07:00 571.12 0.00 -- 32.7 37.0
12/15/2018 06:00 571.11 0.00 -- 31.6 37.0
12/15/2018 05:00 571.11 0.00 -- 31.7 37.0
12/15/2018 04:00 571.12 0.00 -- 33.2 37.0
12/15/2018 03:00 571.09 0.00 -- 35.1 36.0
12/15/2018 02:00 571.11 0.00 -- 39.1 36.0
12/15/2018 01:00 571.14 0.00 -- 39.4 36.0
12/15/2018 00:00 571.09 0.00 0.00 39.3 38.0
12/14/2018 23:00 571.12 0.00 -- 37.3 40.0
12/14/2018 22:00 571.11 0.00 -- 36.8 41.0
12/14/2018 21:00 571.13 0.00 -- 35.3 42.0
12/14/2018 20:00 571.12 0.00 -- 35.8 42.0
12/14/2018 19:00 571.12 0.00 -- 36.7 43.0
12/14/2018 18:00 571.11 0.00 -- 32.6 43.0
12/14/2018 17:00 571.13 0.00 -- 33.1 45.0
12/14/2018 16:00 571.12 0.00 -- 33.4 46.0
12/14/2018 15:00 571.13 0.00 -- 35.5 45.0
12/14/2018 14:00 571.12 0.00 -- 35.1 48.0
12/14/2018 13:00 571.15 0.00 -- 34.6 56.0
12/14/2018 12:00 571.16 0.00 -- 33.2 68.0
12/14/2018 11:00 571.14 0.00 -- 31.0 79.0
12/14/2018 10:00 571.14 0.00 -- 30.2 88.0
12/14/2018 09:00 571.12 0.00 -- 29.2 100.0
12/14/2018 08:00 571.15 0.00 -- 26.7 100.0
12/14/2018 07:00 571.14 0.00 -- 25.6 100.0
12/14/2018 06:00 571.13 0.00 -- 25.5 100.0
12/14/2018 05:00 571.11 0.00 -- 24.2 100.0
12/14/2018 04:00 571.16 0.00 -- 23.1 100.0
12/14/2018 03:00 571.15 0.00 -- 23.7 100.0
12/14/2018 02:00 571.13 0.00 -- 24.9 100.0
12/14/2018 01:00 571.16 0.00 -- 25.0 100.0
12/14/2018 00:00 571.13 0.00 0.00 24.7 100.0
12/13/2018 23:00 571.14 0.00 -- 23.2 100.0
12/13/2018 22:00 571.14 0.00 -- 22.7 100.0
12/13/2018 21:00 571.15 0.00 -- 22.0 100.0
12/13/2018 20:00 571.15 0.00 -- 22.0 100.0
12/13/2018 19:00 571.15 0.00 -- 21.3 100.0
12/13/2018 18:00 571.14 0.00 -- 20.0 100.0
12/13/2018 17:00 571.16 0.00 -- 19.7 100.0
12/13/2018 16:00 571.15 0.00 -- 22.2 100.0
12/13/2018 15:00 571.16 0.00 -- 24.4 100.0
12/13/2018 14:00 571.16 0.00 -- 25.1 100.0
12/13/2018 13:00 571.16 0.00 -- 23.8 100.0
12/13/2018 12:00 571.15 0.00 -- 21.0 100.0
12/13/2018 11:00 571.17 0.00 -- 17.9 100.0
12/13/2018 10:00 571.16 0.00 -- 13.9 100.0
12/13/2018 09:00 571.15 0.00 -- 8.6 100.0
12/13/2018 08:00 571.15 0.00 -- 4.7 100.0
12/13/2018 07:00 571.18 0.00 -- 4.0 100.0
12/13/2018 06:00 571.17 0.00 -- 4.7 100.0
12/13/2018 05:00 571.17 0.00 -- 4.3 100.0
12/13/2018 04:00 571.16 0.00 -- 5.7 100.0
12/13/2018 03:00 571.16 0.00 -- 6.6 100.0
12/13/2018 02:00 571.15 0.00 -- 7.6 100.0
12/13/2018 01:00 571.20 0.00 -- 7.6 100.0
12/13/2018 00:00 571.15 0.00 0.00 9.8 100.0
12/12/2018 23:00 571.16 0.00 -- 10.4 100.0
12/12/2018 22:00 571.16 0.00 -- 12.9 100.0
12/12/2018 21:00 571.17 0.00 -- 13.7 100.0
12/12/2018 20:00 571.16 0.00 -- 16.1 100.0
12/12/2018 19:00 571.17 0.00 -- 19.2 100.0
12/12/2018 18:00 571.17 0.00 -- 21.3 100.0
12/12/2018 17:00 571.18 0.00 -- 23.1 100.0
12/12/2018 16:00 571.18 0.00 -- 24.9 100.0
12/12/2018 15:00 571.18 0.00 -- 26.5 100.0
12/12/2018 14:00 571.19 0.00 -- 27.9 72.0
12/12/2018 13:00 571.17 0.00 -- 29.4 62.0
12/12/2018 12:00 571.20 0.00 -- 29.0 56.0
12/12/2018 11:00 571.19 0.00 -- 28.8 43.0
12/12/2018 10:00 571.20 0.00 -- 27.6 42.0
12/12/2018 09:00 571.18 0.00 -- 24.0 45.0
12/12/2018 08:00 571.18 0.00 -- 21.3 46.0
12/12/2018 07:00 571.18 0.00 -- 22.1 45.0
12/12/2018 06:00 571.18 0.00 -- 20.8 46.0
12/12/2018 05:00 571.19 0.00 -- 20.4 45.0
12/12/2018 04:00 571.18 0.00 -- 19.9 46.0
12/12/2018 03:00 571.20 0.00 -- 17.4 46.0
12/12/2018 02:00 571.18 0.00 -- 14.9 46.0
12/12/2018 01:00 571.21 0.00 -- 14.7 46.0
12/12/2018 00:00 571.20 0.00 0.00 14.2 45.0
12/11/2018 23:00 571.19 0.00 -- 14.2 43.0
12/11/2018 22:00 571.20 0.00 -- 15.2 42.0
12/11/2018 21:00 571.21 0.00 -- 16.6 41.0
12/11/2018 20:00 571.20 0.00 -- 17.7 39.0
12/11/2018 19:00 571.21 0.00 -- 19.2 38.0
12/11/2018 18:00 571.21 0.00 -- 21.6 38.0
12/11/2018 17:00 571.20 0.00 -- 23.6 37.0
12/11/2018 16:00 571.21 0.00 -- 26.1 35.0
12/11/2018 15:00 571.20 0.00 -- 28.8 34.0
12/11/2018 14:00 571.20 0.00 -- 28.9 33.0
12/11/2018 13:00 571.20 0.00 -- 28.0 32.0
12/11/2018 12:00 571.21 0.00 -- 25.4 34.0
12/11/2018 11:00 571.24 0.00 -- 20.3 87.0
12/11/2018 10:00 571.11 0.00 -- 18.2 98.0
12/11/2018 09:00 571.10 0.00 -- 15.7 100.0
12/11/2018 08:00 571.15 0.00 -- 12.3 100.0
12/11/2018 07:00 571.12 0.00 -- 10.4 100.0
12/11/2018 06:00 571.11 0.00 -- 8.6 100.0
12/11/2018 05:00 571.12 0.00 -- 8.3 100.0
12/11/2018 04:00 571.12 0.00 -- 8.5 99.0
12/11/2018 03:00 571.11 0.00 -- 9.4 95.0
12/11/2018 02:00 571.13 0.00 -- 10.0 92.0
12/11/2018 01:00 571.14 0.00 -- 10.7 88.0
12/11/2018 00:00 571.11 0.00 0.00 12.0 85.0
12/10/2018 23:00 571.14 0.00 -- 12.8 79.0
12/10/2018 22:00 571.15 0.00 -- 14.0 79.0
12/10/2018 21:00 571.15 0.00 -- 15.8 74.0
12/10/2018 20:00 571.13 0.00 -- 18.4 72.0
12/10/2018 19:00 571.14 0.00 -- 21.3 74.0
12/10/2018 18:00 571.16 0.00 -- 23.2 74.0
12/10/2018 17:00 571.17 0.00 -- 24.6 74.0
12/10/2018 16:00 571.18 0.00 -- 25.9 74.0
12/10/2018 15:00 571.18 0.00 -- 27.1 74.0
12/10/2018 14:00 571.16 0.00 -- 27.7 68.0
12/10/2018 13:00 571.18 0.00 -- 28.4 68.0
12/10/2018 12:00 571.17 0.00 -- 28.8 65.0
12/10/2018 11:00 571.21 0.00 -- 28.5 62.0
12/10/2018 10:00 571.19 0.00 -- 27.4 64.0
12/10/2018 09:00 571.17 0.00 -- 20.2 70.0
12/10/2018 08:00 571.21 0.00 -- 17.0 71.0
12/10/2018 07:00 571.21 0.00 -- 16.0 72.0
12/10/2018 06:00 571.21 0.00 -- 16.0 73.0
12/10/2018 05:00 571.21 0.00 -- 17.0 75.0
12/10/2018 04:00 571.19 0.00 -- 15.8 73.0
12/10/2018 03:00 571.23 0.00 -- 16.7 74.0
12/10/2018 02:00 571.21 0.00 -- 17.2 75.0
12/10/2018 01:00 571.25 0.00 -- 19.4 75.0
12/10/2018 00:00 571.24 0.00 0.00 19.3 79.0
12/09/2018 23:00 571.23 0.00 -- 20.1 79.0
12/09/2018 22:00 571.23 0.00 -- 19.8 81.0
12/09/2018 21:00 571.25 0.00 -- 20.8 84.0
12/09/2018 20:00 571.25 0.00 -- 22.4 85.0
12/09/2018 19:00 571.24 0.00 -- 24.7 86.0
12/09/2018 18:00 571.25 0.00 -- 26.8 87.0
12/09/2018 17:00 571.24 0.00 -- 27.0 89.0
12/09/2018 16:00 571.27 0.00 -- 28.6 89.0
12/09/2018 15:00 571.26 0.00 -- 29.4 91.0
12/09/2018 14:00 571.25 0.00 -- 29.5 94.0
12/09/2018 13:00 571.23 0.00 -- 29.1 100.0
12/09/2018 12:00 571.30 0.00 -- 27.4 100.0
12/09/2018 11:00 571.23 0.00 -- 25.2 100.0
12/09/2018 10:00 571.27 0.00 -- 23.7 100.0
12/09/2018 09:00 571.30 0.00 -- 19.3 100.0
12/09/2018 08:00 571.31 0.00 -- 11.4 100.0
12/09/2018 07:00 571.27 0.00 -- 10.3 100.0
12/09/2018 06:00 571.31 0.00 -- 10.3 100.0
12/09/2018 05:00 571.29 0.00 -- 9.7 100.0
12/09/2018 04:00 571.30 0.00 -- 10.1 100.0
12/09/2018 03:00 571.28 0.00 -- 10.3 100.0
12/09/2018 02:00 571.30 0.00 -- 12.0 100.0
12/09/2018 01:00 571.32 0.00 -- 13.8 100.0
12/09/2018 00:00 571.33 0.00 0.00 13.2 100.0
12/08/2018 23:00 571.30 0.00 -- 12.7 100.0
12/08/2018 22:00 571.29 0.00 -- 12.6 100.0
12/08/2018 21:00 571.31 0.00 -- 14.1 100.0
12/08/2018 20:00 571.35 0.00 -- 13.6 100.0
12/08/2018 19:00 571.32 0.00 -- 17.3 100.0
12/08/2018 18:00 571.34 0.00 -- 17.0 100.0
12/08/2018 17:00 571.33 0.00 -- 19.3 100.0
12/08/2018 16:00 571.34 0.00 -- 20.1 100.0
12/08/2018 15:00 571.32 0.00 -- 20.7 100.0
12/08/2018 14:00 571.36 0.00 -- 20.6 100.0
12/08/2018 13:00 571.37 0.00 -- 20.4 100.0
12/08/2018 12:00 571.35 0.00 -- 18.9 100.0
12/08/2018 11:00 571.35 0.00 -- 18.7 100.0
12/08/2018 10:00 571.37 0.00 -- 16.9 100.0
12/08/2018 09:00 571.35 0.00 -- 14.6 100.0
12/08/2018 08:00 571.40 0.00 -- 10.0 100.0
12/08/2018 07:00 571.37 0.00 -- 9.4 100.0
12/08/2018 06:00 571.37 0.00 -- 8.5 100.0
12/08/2018 05:00 571.42 0.00 -- 9.6 100.0
12/08/2018 04:00 571.40 0.00 -- 11.6 100.0
12/08/2018 03:00 571.40 0.00 -- 13.7 100.0
12/08/2018 02:00 571.37 0.00 -- 14.7 100.0
12/08/2018 01:00 571.40 0.00 -- 15.7 100.0
12/08/2018 00:00 571.39 0.00 0.00 17.0 100.0
12/07/2018 23:00 571.42 0.00 -- 17.8 100.0
12/07/2018 22:00 571.33 0.00 -- 19.0 100.0
12/07/2018 21:00 571.37 0.00 -- 19.7 100.0
12/07/2018 20:00 571.43 0.00 -- 20.9 100.0
12/07/2018 19:00 571.42 0.00 -- 22.7 100.0
12/07/2018 18:00 571.38 0.00 -- 23.9 100.0
12/07/2018 17:00 571.44 0.00 -- 25.0 100.0
12/07/2018 16:00 571.40 0.00 -- 26.5 100.0
12/07/2018 15:00 571.41 0.00 -- 27.9 89.0
12/07/2018 14:00 571.44 0.00 -- 28.8 73.0
12/07/2018 13:00 571.44 0.00 -- 29.3 52.0
12/07/2018 12:00 571.43 0.00 -- 29.6 47.0
12/07/2018 11:00 571.45 0.00 -- 29.6 39.0
12/07/2018 10:00 571.44 0.00 -- 30.1 32.0
12/07/2018 09:00 571.42 0.00 -- 30.3 28.0
12/07/2018 08:00 571.45 0.00 -- 29.4 27.0
12/07/2018 07:00 571.47 0.00 -- 27.7 27.0
12/07/2018 06:00 571.44 0.00 -- 27.0 27.0
12/07/2018 05:00 571.48 0.00 -- 29.0 28.0
12/07/2018 04:00 571.47 0.00 -- 30.1 27.0
12/07/2018 03:00 571.50 0.00 -- 30.2 28.0
12/07/2018 02:00 571.44 0.00 -- 30.8 28.0
12/07/2018 01:00 571.50 0.00 -- 29.9 28.0
12/07/2018 00:00 571.49 0.00 0.00 29.1 28.0
12/06/2018 23:00 571.46 0.00 -- 29.0 28.0
12/06/2018 22:00 571.50 0.00 -- 27.6 28.0
12/06/2018 21:00 571.49 0.00 -- 27.4 28.0
12/06/2018 20:00 571.49 0.00 -- 28.7 28.0
12/06/2018 19:00 571.50 0.00 -- 29.3 28.0
12/06/2018 18:00 571.53 0.00 -- 29.9 28.0
12/06/2018 17:00 571.52 0.00 -- 29.9 28.0
12/06/2018 16:00 571.50 0.00 -- 31.2 28.0
12/06/2018 15:00 571.51 0.00 -- 33.0 28.0
12/06/2018 14:00 571.54 0.00 -- 33.0 29.0
12/06/2018 13:00 571.54 0.00 -- 31.7 29.0
12/06/2018 12:00 571.55 0.00 -- 31.7 29.0
12/06/2018 11:00 571.54 0.00 -- 31.5 29.0
12/06/2018 10:00 571.51 0.00 -- 29.3 29.0
12/06/2018 09:00 571.53 0.00 -- 25.7 29.0
12/06/2018 08:00 571.52 0.00 -- 21.2 29.0
12/06/2018 07:00 571.56 0.00 -- 21.5 29.0
12/06/2018 06:00 571.58 0.00 -- 23.1 29.0
12/06/2018 05:00 571.56 0.00 -- 23.9 29.0
12/06/2018 04:00 571.56 0.00 -- 22.5 29.0
12/06/2018 03:00 571.59 0.00 -- 21.5 30.0
12/06/2018 02:00 571.59 0.00 -- 20.6 30.0
12/06/2018 01:00 571.57 0.00 -- 19.3 30.0
12/06/2018 00:00 571.58 0.00 0.00 17.9 30.0
12/05/2018 23:00 571.59 0.00 -- 16.7 30.0
12/05/2018 22:00 571.58 0.00 -- 17.5 30.0
12/05/2018 21:00 571.60 0.00 -- 18.1 30.0
12/05/2018 20:00 571.61 0.00 -- 19.5 30.0
12/05/2018 19:00 571.57 0.00 -- 20.9 30.0
12/05/2018 18:00 571.57 0.00 -- 22.3 30.0
12/05/2018 17:00 571.62 0.00 -- 23.9 30.0
12/05/2018 16:00 571.63 0.00 -- 26.9 30.0
12/05/2018 15:00 571.62 0.00 -- 27.8 31.0
12/05/2018 14:00 571.62 0.00 -- 27.6 31.0
12/05/2018 13:00 571.62 0.00 -- 26.9 32.0
12/05/2018 12:00 571.59 0.00 -- 26.1 32.0
12/05/2018 11:00 571.61 0.00 -- 25.2 32.0
12/05/2018 10:00 571.63 0.00 -- 23.5 30.0
12/05/2018 09:00 571.59 0.00 -- 19.4 31.0
12/05/2018 08:00 571.56 0.00 -- 15.5 31.0
12/05/2018 07:00 571.62 0.00 -- 13.7 31.0
12/05/2018 06:00 571.62 0.00 -- 14.3 32.0
12/05/2018 05:00 571.65 0.00 -- 15.0 33.0
12/05/2018 04:00 571.62 0.00 -- 15.3 33.0
12/05/2018 03:00 571.66 0.00 -- 16.4 34.0
12/05/2018 02:00 571.61 0.00 -- 17.1 34.0
12/05/2018 01:00 571.64 0.00 -- 18.7 34.0
12/05/2018 00:00 571.69 0.00 0.00 19.3 35.0
12/04/2018 23:00 571.67 0.00 -- 20.8 37.0
12/04/2018 22:00 571.63 0.00 -- 20.5 36.0
12/04/2018 21:00 571.65 0.00 -- 21.5 39.0
12/04/2018 20:00 571.64 0.00 -- 22.5 40.0
12/04/2018 19:00 571.64 0.00 -- 22.9 39.0
12/04/2018 18:00 571.68 0.00 -- 23.6 40.0
12/04/2018 17:00 571.65 0.00 -- 24.3 40.0
12/04/2018 16:00 571.66 0.00 -- 26.1 40.0
12/04/2018 15:00 571.64 0.00 -- 26.8 40.0
12/04/2018 14:00 571.69 0.00 -- 27.0 40.0
12/04/2018 13:00 571.66 0.00 -- 27.3 37.0
12/04/2018 12:00 571.71 0.00 -- 27.4 34.0
12/04/2018 11:00 571.73 0.00 -- 27.7 30.0
12/04/2018 10:00 571.73 0.00 -- 28.5 29.0
12/04/2018 09:00 571.72 0.00 -- 28.5 28.0
12/04/2018 08:00 571.72 0.00 -- 28.9 27.0
12/04/2018 07:00 571.68 0.00 -- 30.0 27.0
12/04/2018 06:00 571.70 0.00 -- 30.3 27.0
12/04/2018 05:00 571.72 0.00 -- 30.0 27.0
12/04/2018 04:00 571.72 0.00 -- 30.7 27.0
12/04/2018 03:00 571.70 0.00 -- 30.6 27.0
12/04/2018 02:00 571.71 0.00 -- 30.6 27.0
12/04/2018 01:00 571.65 0.00 -- 31.1 27.0
12/04/2018 00:00 571.75 0.00 0.00 32.1 27.0
12/03/2018 23:00 571.71 0.00 -- 33.9 27.0
12/03/2018 22:00 571.70 0.00 -- 35.7 27.0
12/03/2018 21:00 571.72 0.00 -- 37.8 27.0
12/03/2018 20:00 571.76 0.00 -- 39.3 27.0
12/03/2018 19:00 571.73 0.00 -- 40.5 27.0
12/03/2018 18:00 571.75 0.00 -- 42.2 27.0
12/03/2018 17:00 571.75 0.00 -- 41.7 28.0
12/03/2018 16:00 571.76 0.00 -- 42.7 28.0
12/03/2018 15:00 571.71 0.00 -- 44.3 28.0
12/03/2018 14:00 571.70 0.00 -- 45.1 28.0
12/03/2018 13:00 571.75 0.00 -- 46.2 28.0
12/03/2018 12:00 571.76 0.00 -- 42.9 25.0
12/03/2018 11:00 571.74 0.00 -- 41.2 25.0
12/03/2018 10:00 571.74 0.00 -- 40.5 25.0
12/03/2018 09:00 571.77 0.00 -- 36.7 25.0
12/03/2018 08:00 571.76 0.00 -- 36.3 25.0
12/03/2018 07:00 571.75 0.00 -- 35.6 24.0
12/03/2018 06:00 571.75 0.00 -- 39.2 25.0
12/03/2018 05:00 571.65 0.00 -- 40.0 25.0
12/03/2018 04:00 571.77 0.00 -- 40.5 25.0
12/03/2018 03:00 571.79 0.00 -- 33.3 25.0
12/03/2018 02:00 571.76 0.00 -- 33.5 25.0
12/03/2018 01:00 571.76 0.00 -- 34.2 25.0
12/03/2018 00:00 571.72 0.00 0.00 34.8 25.0
12/02/2018 23:00 571.80 0.00 -- 36.6 25.0
12/02/2018 22:00 571.79 0.00 -- 36.9 25.0
12/02/2018 21:00 571.80 0.00 -- 34.7 25.0
12/02/2018 20:00 571.81 0.00 -- 34.5 25.0
12/02/2018 19:00 571.74 0.00 -- 35.1 25.0
12/02/2018 18:00 571.81 0.00 -- 35.2 25.0
12/02/2018 17:00 571.78 0.02 -- 34.6 25.0
12/02/2018 16:00 571.74 0.02 -- 34.2 25.0
12/02/2018 15:00 571.76 0.11 -- 33.7 25.0
12/02/2018 14:00 571.79 0.10 -- 33.8 25.0
12/02/2018 13:00 571.76 0.16 -- 33.3 25.0
12/02/2018 12:00 571.76 0.16 -- 33.0 25.0
12/02/2018 11:00 571.81 0.07 -- 32.5 25.0
12/02/2018 10:00 571.77 0.00 -- 32.2 25.0
12/02/2018 09:00 571.76 0.00 -- 32.0 25.0
12/02/2018 08:00 571.79 0.00 -- 31.9 25.0
12/02/2018 07:00 571.74 0.00 -- 31.3 25.0
12/02/2018 06:00 571.78 0.00 -- 30.2 25.0
12/02/2018 05:00 571.78 0.00 -- 29.9 25.0
12/02/2018 04:00 571.77 0.00 -- 30.4 25.0
12/02/2018 03:00 571.80 0.00 -- 30.0 25.0
12/02/2018 02:00 571.78 0.00 -- 29.8 25.0
12/02/2018 01:00 571.76 0.00 -- 29.5 25.0
12/02/2018 00:00 571.79 0.00 0.64 28.4 25.0
12/01/2018 23:00 571.79 0.00 -- 28.0 25.0
12/01/2018 22:00 571.75 0.00 -- 27.9 25.0
12/01/2018 21:00 571.74 0.00 -- 28.0 25.0
12/01/2018 20:00 571.79 0.00 -- 27.9 25.0
12/01/2018 19:00 571.83 0.00 -- 28.2 25.0
12/01/2018 18:00 571.79 0.00 -- 28.8 25.0
12/01/2018 17:00 571.81 0.00 -- 30.4 24.0
12/01/2018 16:00 571.83 0.00 -- 33.5 24.0
12/01/2018 15:00 571.80 0.00 -- 37.0 25.0
12/01/2018 14:00 571.77 0.00 -- 37.6 25.0
12/01/2018 13:00 571.78 0.00 -- 36.0 25.0
12/01/2018 12:00 571.85 0.00 -- 34.6 25.0
12/01/2018 11:00 571.83 0.00 -- 33.7 25.0
12/01/2018 10:00 571.84 0.00 -- 32.8 25.0
12/01/2018 09:00 571.83 0.00 -- 32.1 25.0
12/01/2018 08:00 571.83 0.00 -- 31.5 25.0
12/01/2018 07:00 571.86 0.00 -- 31.0 25.0
12/01/2018 06:00 571.81 0.00 -- 30.8 25.0
12/01/2018 05:00 571.88 0.00 -- 31.1 25.0
12/01/2018 04:00 571.87 0.00 -- 31.6 25.0
12/01/2018 03:00 571.83 0.00 -- 31.6 25.0
12/01/2018 02:00 571.84 0.00 -- 31.0 25.0
12/01/2018 01:00 571.84 0.00 -- 31.0 25.0
12/01/2018 00:00 571.88 0.00 0.00 29.7 25.0
11/30/2018 23:00 571.85 0.00 -- 29.7 25.0
11/30/2018 22:00 571.90 0.00 -- 31.1 25.0
11/30/2018 21:00 571.89 0.00 -- 30.1 25.0
11/30/2018 20:00 571.88 0.00 -- 30.1 25.0
11/30/2018 19:00 571.91 0.00 -- 29.9 25.0
11/30/2018 18:00 571.88 0.00 -- 30.4 25.0
11/30/2018 17:00 571.92 0.00 -- 32.0 25.0
11/30/2018 16:00 571.88 0.00 -- 33.8 25.0
11/30/2018 15:00 571.88 0.00 -- 34.8 25.0
11/30/2018 14:00 571.91 0.00 -- 36.0 25.0
11/30/2018 13:00 571.90 0.00 -- 36.8 25.0
11/30/2018 12:00 571.91 0.00 -- 36.4 25.0
11/30/2018 11:00 571.92 0.00 -- 36.2 26.0
11/30/2018 10:00 571.92 0.00 -- 33.4 26.0
11/30/2018 09:00 571.91 0.00 -- 31.1 26.0
11/30/2018 08:00 571.93 0.00 -- 26.4 26.0
11/30/2018 07:00 571.94 0.00 -- 26.3 26.0
11/30/2018 06:00 571.95 0.00 -- 27.2 25.0
11/30/2018 05:00 571.97 0.00 -- 28.8 26.0
11/30/2018 04:00 571.97 0.00 -- 29.0 26.0
11/30/2018 03:00 571.90 0.00 -- 30.6 26.0
11/30/2018 02:00 571.93 0.00 -- 30.5 26.0
11/30/2018 01:00 571.93 0.00 -- 30.4 26.0
11/30/2018 00:00 571.99 0.00 0.00 31.3 26.0
11/29/2018 23:00 571.98 0.00 -- 30.8 25.0
11/29/2018 22:00 572.00 0.00 -- 32.3 25.0
11/29/2018 21:00 571.96 0.00 -- 33.1 26.0
11/29/2018 20:00 571.95 0.00 -- 33.0 25.0
11/29/2018 19:00 571.97 0.00 -- 33.1 26.0
11/29/2018 18:00 572.01 0.00 -- 33.6 25.0
11/29/2018 17:00 572.00 0.00 -- 33.9 25.0
11/29/2018 16:00 572.00 0.00 -- 34.8 25.0
11/29/2018 15:00 572.01 0.00 -- 35.6 25.0
11/29/2018 14:00 572.01 0.00 -- 37.2 25.0
11/29/2018 13:00 571.99 0.00 -- 38.2 24.0
11/29/2018 12:00 572.02 0.00 -- 38.3 24.0
11/29/2018 11:00 572.00 0.00 -- 37.6 25.0
11/29/2018 10:00 572.04 0.00 -- 36.9 25.0
11/29/2018 09:00 572.03 0.00 -- 36.1 25.0
11/29/2018 08:00 572.06 0.00 -- 34.5 25.0
11/29/2018 07:00 572.09 0.00 -- 32.9 25.0
11/29/2018 06:00 572.05 0.00 -- 32.8 25.0
11/29/2018 05:00 572.05 0.00 -- 30.9 25.0
11/29/2018 04:00 572.05 0.00 -- 33.4 25.0
11/29/2018 03:00 572.08 0.00 -- 34.4 25.0
11/29/2018 02:00 572.11 0.00 -- 34.8 25.0
11/29/2018 01:00 572.08 0.00 -- 35.2 25.0
11/29/2018 00:00 572.07 0.00 0.00 34.9 25.0
11/28/2018 23:00 572.08 0.00 -- 34.8 25.0
11/28/2018 22:00 572.11 0.00 -- 34.4 25.0
11/28/2018 21:00 572.11 0.00 -- 34.6 26.0
11/28/2018 20:00 572.11 0.00 -- 34.7 26.0
11/28/2018 19:00 572.13 0.00 -- 34.6 26.0
11/28/2018 18:00 572.11 0.00 -- 34.9 26.0
11/28/2018 17:00 572.10 0.02 -- 35.2 26.0
11/28/2018 16:00 572.08 0.05 -- 35.9 27.0
11/28/2018 15:00 572.11 0.07 -- 37.2 27.0
11/28/2018 14:00 572.17 0.05 -- 36.8 27.0
11/28/2018 13:00 572.11 0.06 -- 37.2 28.0
11/28/2018 12:00 572.22 0.03 -- 36.1 28.0
11/28/2018 11:00 572.23 0.02 -- 36.1 26.0
11/28/2018 10:00 572.24 0.01 -- 34.9 27.0
11/28/2018 09:00 572.24 0.01 -- 34.1 27.0
11/28/2018 08:00 572.25 0.00 -- 33.5 27.0
11/28/2018 07:00 572.24 0.00 -- 32.5 26.0
11/28/2018 06:00 572.22 0.00 -- 32.6 26.0
11/28/2018 05:00 572.24 0.00 -- 32.8 26.0
11/28/2018 04:00 572.23 0.00 -- 32.5 26.0
11/28/2018 03:00 572.25 0.00 -- 32.1 26.0
11/28/2018 02:00 572.26 0.00 -- 32.8 26.0
11/28/2018 01:00 572.23 0.00 -- 33.4 26.0
11/28/2018 00:00 572.25 0.02 0.32 33.8 25.0
11/27/2018 23:00 572.27 0.00 -- 33.5 25.0
11/27/2018 22:00 572.24 0.00 -- 33.3 25.0
11/27/2018 21:00 572.26 0.00 -- 33.6 25.0
11/27/2018 20:00 572.25 0.03 -- 33.5 25.0
11/27/2018 19:00 572.23 0.04 -- 33.6 26.0
11/27/2018 18:00 572.25 0.04 -- 34.0 26.0
11/27/2018 17:00 572.26 0.05 -- 33.6 26.0
11/27/2018 16:00 572.24 0.00 -- 33.7 27.0
11/27/2018 15:00 572.25 0.00 -- 33.0 26.0
11/27/2018 14:00 572.25 0.00 -- 32.6 25.0
11/27/2018 13:00 572.24 0.00 -- 33.1 26.0
11/27/2018 12:00 572.28 0.00 -- 32.9 26.0
11/27/2018 11:00 572.24 0.00 -- 32.3 26.0
11/27/2018 10:00 572.23 0.00 -- 32.3 26.0
11/27/2018 09:00 572.24 0.00 -- 32.1 26.0
11/27/2018 08:00 572.26 0.00 -- 31.9 26.0
11/27/2018 07:00 572.25 0.00 -- 32.0 27.0
11/27/2018 06:00 572.20 0.00 -- 32.0 26.0
11/27/2018 05:00 572.22 0.00 -- 31.9 26.0
11/27/2018 04:00 572.23 0.00 -- 31.9 26.0
11/27/2018 03:00 572.18 0.00 -- 31.9 26.0
11/27/2018 02:00 572.21 0.00 -- 31.8 26.0
11/27/2018 01:00 572.22 0.00 -- 31.9 26.0
11/27/2018 00:00 572.21 0.00 0.18 31.9 26.0
11/26/2018 23:00 572.23 0.00 -- 32.1 26.0
11/26/2018 22:00 572.20 0.00 -- 32.0 26.0
11/26/2018 21:00 572.20 0.00 -- 32.1 26.0
11/26/2018 20:00 572.19 0.00 -- 32.1 26.0
11/26/2018 19:00 572.18 0.02 -- 32.2 26.0
11/26/2018 18:00 572.19 0.00 -- 33.2 26.0
11/26/2018 17:00 572.22 0.00 -- 33.2 26.0
11/26/2018 16:00 572.16 0.00 -- 33.2 26.0
11/26/2018 15:00 572.19 0.00 -- 33.1 26.0
11/26/2018 14:00 572.23 0.00 -- 33.1 26.0
11/26/2018 13:00 572.19 0.00 -- 33.3 25.0
11/26/2018 12:00 572.20 0.00 -- 33.2 24.0
11/26/2018 11:00 572.19 0.00 -- 32.8 24.0
11/26/2018 10:00 572.21 0.00 -- 32.4 24.0
11/26/2018 09:00 572.21 0.00 -- 32.3 24.0
11/26/2018 08:00 572.20 0.00 -- 32.5 24.0
11/26/2018 07:00 572.22 0.00 -- 32.7 24.0
11/26/2018 06:00 572.21 0.00 -- 32.9 23.0
11/26/2018 05:00 572.22 0.00 -- 33.1 24.0
11/26/2018 04:00 572.21 0.00 -- 33.1 24.0
11/26/2018 03:00 572.22 0.00 -- 33.2 24.0
11/26/2018 02:00 572.22 0.00 -- 33.5 25.0
11/26/2018 01:00 572.22 0.00 -- 33.3 25.0
11/26/2018 00:00 572.21 0.00 0.02 33.8 25.0
11/25/2018 23:00 572.22 0.00 -- 33.7 25.0
11/25/2018 22:00 572.22 0.00 -- 33.6 25.0
11/25/2018 21:00 572.21 0.00 -- 34.0 25.0
11/25/2018 20:00 572.24 0.00 -- 34.1 25.0
11/25/2018 19:00 572.22 0.00 -- 35.0 25.0
11/25/2018 18:00 572.22 0.00 -- 35.1 25.0
11/25/2018 17:00 572.24 0.00 -- 36.0 25.0
11/25/2018 16:00 572.25 0.01 -- 36.8 25.0
11/25/2018 15:00 572.26 0.03 -- 37.7 25.0
11/25/2018 14:00 572.23 0.07 -- 37.8 25.0
11/25/2018 13:00 572.23 0.09 -- 36.5 26.0
11/25/2018 12:00 572.22 0.11 -- 35.2 26.0
11/25/2018 11:00 572.23 0.08 -- 33.9 25.0
11/25/2018 10:00 572.23 0.07 -- 33.5 25.0
11/25/2018 09:00 572.23 0.05 -- 33.0 25.0
11/25/2018 08:00 572.21 0.01 -- 32.8 25.0
11/25/2018 07:00 572.24 0.00 -- 32.9 25.0
11/25/2018 06:00 572.25 0.00 -- 32.9 25.0
11/25/2018 05:00 572.23 0.00 -- 33.2 25.0
11/25/2018 04:00 -- -- -- 33.7 25.0
11/25/2018 03:00 -- -- -- 33.5 25.0
11/25/2018 02:00 -- -- -- 33.5 26.0
11/25/2018 01:00 -- -- -- 33.1 26.0
11/25/2018 00:00 -- -- 0.52 32.6 26.0